ECMWFFLT1_prec_cthk_000.txt.gz
RH
43 46 47 48 47 46 47 48 48 50 52 50 43 37 34 31 31 31 29 27 26 26 28 30 32 32 31 27 25 26 30 34 39 42 42 41 42 42 40 37 35 34 34 33 32 32 33 34 33 30 29 30 29 26 23 21 20 20 22 23 25 27 30
41 45 45 45 45 44 45 46 46 45 47 47 45 40 36 34 32 32 30 30 29 28 29 32 34 34 32 29 26 26 28 32 36 40 42 42 43 44 42 37 33 32 32 30 31 32 33 36 35 32 32 31 28 25 23 21 19 21 23 25 26 26 28
40 44 45 45 44 44 44 44 42 40 40 42 42 41 39 36 34 32 33 35 35 33 32 35 36 37 36 33 30 29 30 34 38 41 42 42 44 46 43 38 34 32 32 31 31 31 32 34 35 33 33 32 28 25 23 21 20 22 24 25 25 26 27
39 42 43 46 45 44 43 41 38 36 35 37 38 38 37 37 37 38 41 43 42 39 38 39 41 41 40 36 33 33 35 40 44 47 48 47 47 47 44 40 37 33 32 32 31 30 31 32 32 33 34 33 29 26 24 22 21 22 23 23 25 27 27
39 41 43 45 45 44 43 40 36 33 32 33 36 37 37 40 42 45 50 51 47 44 43 43 42 41 39 37 36 38 40 43 46 48 49 49 48 47 43 41 41 37 33 32 32 33 32 31 31 34 37 37 32 28 27 25 22 22 22 24 26 28 27
39 41 41 42 43 41 39 38 35 32 30 30 33 36 38 41 44 48 52 52 49 47 44 42 41 39 38 40 40 39 39 41 44 47 49 48 44 42 41 40 40 39 37 37 39 39 36 32 32 35 39 40 35 30 29 27 25 24 24 25 27 28 28
39 41 40 39 39 36 34 34 34 33 31 29 30 33 37 41 43 45 47 48 47 47 44 43 43 42 41 42 42 40 37 38 40 42 47 47 43 39 38 38 39 41 43 45 48 49 46 39 35 37 42 43 38 32 31 30 28 27 27 27 29 30 31
39 39 37 36 35 33 33 33 31 32 32 30 30 32 35 38 40 41 42 44 45 45 44 42 41 41 41 40 40 39 39 40 41 40 40 41 40 40 42 44 45 44 46 50 53 56 55 49 42 40 45 47 42 36 35 34 32 31 31 31 32 33 34
37 37 35 34 33 31 31 31 29 30 32 32 32 32 33 35 37 38 39 40 41 40 39 37 35 36 38 38 38 38 39 42 44 43 41 39 37 42 51 54 49 47 50 53 57 61 59 54 48 45 48 50 45 40 39 37 36 34 33 34 35 35 35
35 35 34 33 32 30 29 29 30 32 32 33 34 34 33 34 35 36 37 39 39 37 36 36 34 34 37 40 41 41 43 45 46 47 46 44 41 44 55 59 52 50 52 53 58 62 60 58 56 52 52 53 50 46 42 39 37 35 34 34 35 35 35
34 34 33 31 30 30 29 30 32 32 31 31 33 34 34 33 36 38 39 41 40 39 38 37 36 34 37 42 44 46 48 49 51 53 52 52 50 50 56 60 57 53 51 52 58 60 57 61 62 58 57 58 55 51 45 40 37 34 34 35 37 38 38
35 33 31 28 28 29 29 29 31 31 30 30 32 33 33 34 37 39 41 43 43 42 41 40 40 38 38 41 45 49 53 53 54 56 57 60 60 55 56 62 62 57 52 54 59 60 59 62 63 60 59 60 58 55 47 40 37 36 37 39 41 42 42
34 32 29 27 27 28 28 29 30 30 30 31 33 33 32 33 36 38 40 41 41 41 41 41 42 40 40 43 47 54 59 59 58 59 60 65 65 60 60 65 65 60 60 63 62 58 60 62 59 57 58 59 61 57 47 39 38 39 42 44 44 45 45
32 30 29 28 28 28 28 28 29 30 31 31 32 33 33 34 36 38 38 38 37 38 38 38 40 40 41 45 49 55 57 55 57 61 64 68 71 68 64 64 63 60 66 75 71 61 60 59 56 54 56 59 60 55 47 41 40 42 45 46 47 49 49
32 31 28 28 28 28 29 28 29 31 31 31 32 33 33 36 38 39 39 38 36 36 36 37 38 39 40 43 47 51 53 56 64 71 75 76 79 77 70 67 65 61 65 76 77 68 61 59 58 56 56 59 58 54 49 44 43 45 47 48 50 52 52
33 30 27 27 29 31 31 29 30 32 32 31 31 32 33 35 36 37 37 37 37 37 37 37 38 41 46 49 51 51 53 60 68 73 79 83 84 81 77 74 72 66 66 75 79 73 64 61 62 61 60 60 59 56 51 47 47 49 50 51 53 55 54
32 30 29 30 32 33 33 33 34 35 35 33 31 32 33 34 35 37 38 39 39 38 37 39 41 45 49 51 52 52 54 60 63 67 80 90 89 84 77 71 69 69 71 79 83 79 71 65 64 64 63 61 60 58 55 52 52 55 55 56 58 59 58
30 32 33 34 34 34 35 35 36 36 35 34 34 35 34 34 35 38 40 41 40 38 40 42 43 45 46 45 46 49 53 57 58 65 81 89 86 80 71 65 65 68 71 77 82 82 80 74 67 63 64 64 62 62 60 58 58 60 59 60 62 64 62
31 32 33 33 33 33 35 35 35 35 35 36 36 36 36 36 38 40 41 43 43 42 45 46 45 46 48 47 46 46 51 56 55 61 76 82 78 75 71 68 69 69 68 71 76 80 84 82 72 66 66 65 64 66 65 63 64 64 64 64 66 68 67
32 33 34 34 34 34 35 35 36 37 38 39 41 41 41 42 43 45 47 48 48 47 46 44 45 49 51 52 52 50 52 57 57 62 72 77 75 73 73 74 75 73 70 70 72 76 79 79 74 71 71 69 68 70 69 67 68 69 68 69 71 71 70
33 35 35 35 36 36 37 38 40 42 44 45 46 46 44 42 41 42 44 45 45 44 41 40 44 50 52 54 55 53 53 57 60 63 66 70 72 72 74 79 79 77 74 72 72 74 76 76 75 74 74 74 72 71 69 69 71 72 70 72 75 75 73
35 38 38 37 37 38 39 41 43 44 45 45 47 47 43 36 34 35 37 40 41 40 39 41 46 51 53 53 53 52 53 57 60 61 62 67 72 75 78 81 80 78 75 72 71 75 76 75 72 70 73 75 74 73 71 71 73 73 73 77 80 80 79
36 39 41 41 40 39 39 41 43 44 44 44 45 44 40 33 30 32 35 37 39 39 39 42 46 49 51 52 53 54 55 57 58 59 63 70 74 77 79 81 80 78 74 69 70 75 76 73 68 69 76 80 79 79 77 76 76 76 77 81 84 85 84
37 39 41 41 40 39 40 42 45 45 44 43 41 39 37 34 31 32 35 37 37 38 39 42 44 46 47 49 50 51 52 52 53 55 62 67 67 69 75 80 80 78 72 68 69 73 72 70 69 75 82 85 86 86 84 82 80 78 80 85 86 88 88
40 40 41 40 39 39 42 45 47 45 44 44 43 41 40 38 35 37 40 42 41 41 41 43 45 46 46 45 46 47 46 47 49 53 59 63 62 64 72 74 71 68 65 65 67 67 67 69 73 79 85 88 88 86 85 85 84 83 86 90 90 90 86
42 41 41 42 42 43 45 47 46 44 45 46 45 44 43 42 41 42 46 47 48 46 45 46 47 47 46 46 47 48 47 47 49 49 53 58 59 57 59 59 58 61 64 64 65 66 67 71 76 81 85 88 86 82 82 85 84 84 87 89 89 88 80
40 40 40 42 44 46 46 46 44 45 45 46 45 46 47 46 45 46 48 51 51 49 49 49 50 50 49 50 52 53 51 50 50 49 54 63 62 53 49 49 51 59 66 66 65 68 70 73 76 80 83 84 83 80 80 82 82 83 85 86 84 79 70
39 40 40 41 43 45 45 46 47 48 49 49 49 50 49 49 49 50 50 51 51 52 53 52 52 52 53 54 54 54 53 54 54 55 63 71 68 59 56 57 57 60 63 65 67 71 73 73 74 77 79 79 77 75 77 79 81 81 80 78 74 68 59
40 42 42 42 43 45 47 49 50 50 51 52 51 50 49 51 54 54 51 50 53 56 56 56 56 56 56 55 54 52 52 54 57 60 66 69 68 67 68 69 68 65 65 69 71 72 71 71 72 75 79 79 77 77 76 75 73 71 69 67 64 58 53
41 42 43 43 43 45 47 48 47 47 50 51 51 50 51 54 57 56 53 53 56 59 60 60 59 58 57 56 54 51 49 51 55 59 63 65 65 66 68 69 69 67 68 71 72 71 69 71 72 76 79 80 79 77 74 69 64 62 62 61 57 53 50
41 41 41 41 42 42 43 43 43 44 47 49 50 52 55 57 59 58 56 55 56 57 58 59 57 56 56 55 52 48 47 50 54 58 61 64 64 63 64 65 66 69 70 72 72 70 69 70 73 78 81 79 75 73 70 66 61 59 59 58 54 51 49
43 43 42 42 41 43 43 44 45 45 45 45 48 55 60 60 59 59 58 56 55 56 58 57 56 55 53 50 48 46 46 50 55 59 63 67 68 67 67 67 67 68 70 70 70 70 71 71 74 76 74 70 67 66 65 63 61 60 59 55 51 49 48
46 45 43 43 43 43 44 45 46 47 48 47 48 54 60 60 59 60 60 57 57 58 59 58 56 52 49 46 46 46 46 51 56 61 65 70 72 72 71 70 69 69 70 70 69 70 71 70 66 64 63 63 64 63 62 62 62 61 57 53 51 50 50
50 47 46 46 45 44 44 44 45 47 49 51 53 55 59 59 58 58 58 57 57 58 56 53 49 45 44 44 45 46 49 54 57 61 65 69 71 70 70 70 70 69 68 68 67 65 63 58 52 53 58 62 64 63 62 62 61 57 55 54 53 53 54
52 53 53 51 48 46 46 45 45 47 50 53 56 56 55 53 50 48 49 52 53 51 47 44 42 41 42 44 48 51 54 56 59 61 64 65 65 65 65 64 62 60 59 57 55 53 51 48 47 52 57 61 63 64 62 60 58 56 55 56 56 56 57
54 55 55 52 49 48 48 47 47 49 51 50 50 48 45 43 42 42 44 47 46 43 42 42 43 43 43 46 52 57 59 59 60 62 65 66 64 60 54 49 47 47 47 45 44 44 44 44 47 55 61 65 66 63 59 58 58 58 58 59 59 59 57
57 55 55 53 50 49 50 50 48 47 45 42 41 40 39 39 40 40 42 42 40 40 42 44 43 41 41 45 53 58 59 60 61 62 64 65 63 58 50 45 43 42 42 41 41 42 43 44 50 59 65 65 61 56 54 58 61 61 60 60 60 58 55
58 55 53 51 50 50 50 49 45 43 42 41 39 37 36 38 40 40 40 40 41 42 44 43 41 39 40 47 54 56 57 59 61 62 65 66 64 60 53 48 45 44 42 42 42 43 45 50 56 62 62 58 53 51 53 57 60 61 62 62 60 57 54

ECMWFFLT1_prec_cthk_003.txt.gz
RH
45 47 48 48 48 47 46 44 43 42 41 40 39 40 40 36 33 29 27 27 28 28 27 27 30 33 35 38 40 42 42 41 40 42 43 44 45 45 46 47 49 48 45 42 39 36 33 31 30 28 28 28 30 32 33 30 25 22 22 22 22 23 27
38 41 45 48 48 47 47 47 45 44 44 43 42 41 41 39 35 31 28 27 28 28 26 28 30 32 34 38 42 44 44 41 39 40 42 44 46 48 50 51 52 52 49 47 46 44 40 36 32 29 28 27 28 30 32 32 28 23 22 23 23 24 27
36 38 42 46 47 47 47 48 46 43 41 42 43 42 41 40 36 32 31 30 29 28 26 27 30 32 34 38 42 45 45 42 39 39 41 42 43 47 51 52 54 52 48 47 50 49 45 43 42 39 35 30 28 28 30 31 29 24 22 23 25 26 27
34 35 38 42 44 45 45 44 43 40 37 38 40 41 41 40 36 33 31 29 27 27 27 29 30 32 33 35 40 43 44 44 44 43 43 42 44 48 54 57 58 54 45 41 42 43 42 42 45 48 46 40 34 29 28 31 30 24 23 24 25 26 26
33 34 37 39 41 44 43 42 41 39 37 34 35 37 38 38 36 33 30 27 26 28 31 32 32 32 32 34 39 42 44 45 46 46 46 46 48 52 56 59 58 52 43 38 38 41 43 43 45 50 52 48 43 36 31 33 33 27 24 24 24 25 25
34 35 37 38 40 42 42 41 39 39 36 33 31 31 32 34 34 32 31 30 29 30 33 35 35 34 34 36 38 41 43 46 47 47 46 46 50 55 60 62 61 56 47 41 43 47 47 47 49 52 54 52 50 44 37 36 37 32 26 25 25 25 26
31 34 36 37 39 41 40 38 37 36 35 33 31 29 29 30 30 30 30 32 32 33 35 37 38 39 39 39 40 40 42 42 41 42 45 48 53 59 65 67 67 65 57 49 51 53 51 50 53 54 56 55 55 52 46 42 41 36 31 29 29 28 28
27 30 33 36 38 39 37 35 34 34 34 33 30 29 29 29 30 30 30 32 35 37 39 41 42 43 43 43 42 42 43 41 40 41 45 51 57 64 69 69 69 69 63 57 57 57 54 55 56 56 57 56 55 56 55 52 49 42 37 36 34 31 31
25 27 32 35 38 37 35 34 33 32 31 29 26 27 29 29 30 31 32 34 36 38 41 44 46 46 45 44 43 44 47 48 47 48 52 56 59 64 65 66 70 70 65 61 61 58 55 57 58 59 59 56 54 56 58 60 59 53 47 45 41 36 33
24 28 32 36 37 36 35 34 32 30 28 27 25 25 28 29 29 30 31 34 36 38 41 45 47 47 46 48 51 53 53 52 51 51 54 55 55 57 59 60 66 69 65 61 62 61 59 60 62 63 64 61 57 57 59 61 62 58 52 48 44 39 35
26 29 32 36 37 35 34 33 30 29 27 26 24 25 26 29 30 31 32 34 37 40 42 45 46 47 48 52 55 55 56 56 54 53 52 51 49 51 56 59 62 68 66 61 62 67 68 69 69 67 66 65 61 58 59 61 61 56 50 47 44 41 37
28 30 31 33 34 32 31 31 29 28 26 25 24 25 26 29 31 32 34 36 37 40 42 44 46 46 47 51 52 51 52 54 56 55 53 50 48 49 54 57 61 67 67 62 64 69 71 72 73 70 69 68 63 59 58 59 59 56 50 46 45 43 42
28 32 32 31 31 31 30 30 28 28 27 25 25 25 27 29 31 32 34 36 38 40 41 43 44 44 46 48 48 47 49 55 57 55 50 47 50 55 59 59 62 69 67 61 63 69 72 75 76 73 73 73 69 64 60 58 60 58 52 49 48 48 47
29 34 34 32 30 30 28 27 27 27 27 26 26 27 28 30 31 33 35 37 39 40 42 41 41 42 44 46 46 46 49 54 57 53 46 46 53 61 63 63 66 71 69 63 64 70 75 78 75 72 74 77 77 73 66 61 61 60 55 52 53 52 51
30 33 33 31 30 28 26 25 26 26 26 27 27 28 29 31 33 33 34 36 38 39 40 40 39 40 42 45 46 48 50 53 57 56 51 49 51 55 62 67 70 74 73 68 67 70 73 74 71 70 72 76 79 78 71 65 62 61 59 56 55 56 56
28 28 29 31 31 27 24 25 26 26 27 27 27 28 29 30 31 31 32 33 35 37 37 37 37 38 41 45 46 48 50 52 57 60 58 55 54 52 55 62 69 76 76 69 67 70 72 73 73 72 72 73 77 78 74 70 66 64 63 61 61 62 61
27 26 28 30 30 27 26 28 29 30 29 29 29 30 30 31 30 30 31 33 35 36 37 38 40 42 46 48 49 49 51 52 56 58 59 61 61 58 58 63 71 80 82 77 74 74 76 78 78 76 72 71 74 77 76 75 72 70 69 66 65 68 68
26 26 27 28 26 25 28 30 31 31 31 31 32 33 33 33 33 31 33 37 38 39 42 44 46 48 51 52 51 51 52 53 54 57 61 67 69 71 73 71 68 73 79 82 80 77 77 80 79 80 79 74 73 77 79 78 77 76 74 69 69 72 74
28 28 30 29 27 27 29 31 32 32 32 32 33 34 34 35 36 36 36 38 40 42 46 47 48 50 51 53 53 53 52 54 56 60 67 73 74 73 72 67 60 60 67 73 74 72 75 80 82 84 85 78 72 75 80 80 79 79 77 74 73 75 75
31 32 33 33 32 33 35 35 36 36 35 35 36 37 38 38 38 39 39 41 43 45 47 48 49 51 53 54 55 54 54 56 57 60 64 67 67 65 64 63 59 57 58 62 66 68 73 80 84 82 81 79 75 74 76 77 77 79 80 78 77 77 77
29 30 31 32 32 34 37 40 42 42 41 42 42 41 41 39 38 39 41 43 44 45 46 47 50 53 54 53 52 51 52 53 54 55 57 59 61 61 60 61 60 55 53 56 63 67 66 68 74 76 79 81 75 70 72 77 78 81 83 81 79 80 80
27 27 28 28 28 32 35 39 44 47 46 45 44 41 38 37 37 38 36 35 36 38 39 40 43 45 46 46 45 45 49 52 55 57 56 55 56 56 56 57 56 54 52 55 64 66 58 57 66 76 82 81 73 69 74 78 80 83 84 82 81 81 80
26 26 26 28 30 33 35 37 41 46 47 45 40 36 35 35 36 35 33 33 34 32 30 31 33 36 38 39 42 46 50 53 56 57 54 53 52 50 50 52 53 54 53 55 63 63 57 60 71 76 76 74 71 71 75 78 81 84 83 82 82 81 80
27 27 28 30 32 36 37 35 36 40 43 42 37 34 34 36 35 34 34 35 34 31 29 30 33 35 37 40 45 49 52 55 56 55 54 54 52 48 47 48 51 52 51 52 57 57 57 65 73 73 68 67 69 72 74 75 78 80 81 83 84 83 83
29 30 31 32 34 36 36 34 33 36 38 38 36 34 34 36 35 35 35 35 34 32 33 34 35 37 40 44 48 51 53 55 56 57 57 56 53 48 46 48 50 50 47 48 52 53 56 63 68 68 65 64 68 73 74 74 76 78 82 84 83 81 80
33 33 33 33 33 34 34 33 33 34 35 35 35 34 34 35 36 36 36 35 35 35 36 38 38 39 42 46 48 51 53 55 58 61 60 57 54 50 48 50 52 50 47 49 51 52 55 58 59 63 66 66 68 72 73 74 77 79 81 82 82 81 78
35 34 34 33 32 32 33 34 34 35 35 35 34 35 35 36 37 37 38 38 38 39 41 42 42 43 45 47 51 54 57 59 63 64 61 58 55 52 52 54 52 47 47 50 52 51 53 54 54 59 67 68 67 68 72 75 77 79 80 80 80 80 77
36 35 34 34 34 35 36 37 38 38 37 36 36 36 36 37 38 39 40 41 42 44 45 45 46 46 47 50 55 59 63 65 66 65 62 56 52 51 53 55 50 44 46 50 51 51 51 52 54 59 64 65 64 65 70 74 77 78 78 77 75 73 71
39 38 37 37 37 38 40 42 42 40 38 37 37 38 38 38 39 39 41 44 46 46 46 47 50 50 50 53 56 60 65 69 68 64 59 54 50 51 53 52 46 44 46 50 52 52 51 52 55 58 60 61 63 66 68 71 74 73 71 69 66 64 63
40 40 39 39 39 40 42 43 42 41 40 39 40 41 41 40 40 42 44 45 45 45 46 50 52 54 55 57 58 60 66 69 66 61 56 53 53 53 53 49 43 43 48 51 54 55 53 54 57 58 58 61 65 68 69 70 67 63 59 58 55 53 54
40 39 39 38 39 39 40 42 43 43 42 42 43 45 45 44 44 45 45 43 43 42 43 49 54 56 57 59 60 62 66 66 62 57 55 55 55 53 53 49 45 47 51 54 55 55 55 57 58 58 60 64 68 70 69 64 57 51 50 51 52 52 51
41 40 40 39 39 40 41 42 44 44 43 44 45 46 46 45 44 43 42 41 42 42 43 48 53 56 57 59 60 61 61 59 57 55 55 55 53 53 56 56 55 56 60 61 60 58 56 56 56 56 59 62 63 64 60 53 48 48 50 54 58 56 50
44 42 41 41 41 42 43 44 45 45 44 44 45 45 43 42 41 41 41 42 44 45 46 50 53 54 56 57 56 53 51 51 52 52 51 51 52 54 59 60 60 63 65 65 63 59 56 55 55 55 57 56 55 55 53 49 50 54 59 61 60 53 47
44 42 42 43 43 43 43 44 46 46 45 45 45 44 44 44 43 42 42 44 47 46 45 48 51 52 53 52 48 45 46 48 50 50 50 52 55 57 59 60 61 63 64 63 60 57 55 54 54 55 55 54 55 55 51 49 51 54 56 56 52 46 45
44 43 44 45 44 44 43 43 44 44 44 45 45 44 45 46 45 44 44 45 45 43 42 45 48 50 48 45 43 44 47 49 50 51 53 58 61 58 56 58 59 57 56 55 55 56 56 55 55 55 55 55 57 55 49 47 48 49 48 47 46 46 48
45 45 45 45 44 43 44 44 46 46 47 47 46 46 47 46 44 44 44 42 40 40 42 45 46 44 42 41 42 46 49 50 51 53 58 64 64 58 54 54 53 49 46 45 45 49 52 53 52 52 51 52 53 50 47 49 50 48 47 47 48 48 49
47 47 47 47 46 45 46 47 48 49 49 48 48 48 48 45 44 44 42 39 39 41 43 44 42 40 39 40 42 45 47 48 51 56 61 64 63 58 52 50 48 45 42 40 40 42 45 47 47 45 45 45 46 48 51 54 53 49 46 45 46 48 50
49 49 49 48 45 45 47 49 50 51 51 50 50 49 46 44 44 44 41 39 40 41 42 42 39 38 39 41 42 43 44 46 50 57 60 61 60 58 54 50 48 46 42 39 40 43 44 44 46 46 45 45 48 52 55 55 50 45 43 44 48 52 56

ECMWFFLT1_prec_cthk_009.txt.gz
RH
43 36 35 40 37 34 34 36 38 40 41 40 38 35 33 33 33 34 37 37 36 31 27 27 28 28 28 27 28 28 27 26 27 30 32 34 37 42 45 45 44 45 47 46 46 46 48 51 51 52 53 54 55 53 47 44 44 50 52 49 48 54 52
41 37 32 36 36 34 35 36 38 39 39 39 38 36 33 33 33 33 35 37 36 32 28 30 31 31 31 30 31 30 28 28 30 33 36 38 39 42 44 46 45 44 44 47 52 55 57 60 58 57 57 58 58 57 52 49 45 50 59 56 50 54 58
37 35 31 33 34 34 35 36 37 37 37 37 37 37 35 34 34 34 35 37 37 34 31 32 33 33 32 31 31 29 29 31 33 35 38 41 42 43 43 44 44 45 45 48 55 60 62 64 61 57 58 58 58 56 55 55 51 51 61 65 59 59 62
34 34 34 35 33 34 36 36 37 38 38 39 39 40 38 36 35 34 34 36 37 36 34 35 34 33 33 31 30 30 32 33 35 36 37 41 45 45 45 46 46 49 53 56 59 62 63 64 60 56 57 58 59 59 57 58 59 58 61 67 69 69 68
32 35 41 42 34 33 36 36 37 38 39 40 42 43 41 37 35 34 33 33 35 35 34 36 36 33 31 31 31 31 32 34 36 39 38 39 44 47 50 53 55 57 60 64 64 63 61 60 59 59 59 57 59 65 64 62 65 65 64 67 71 74 73
31 32 39 43 36 32 35 35 36 37 38 39 42 44 43 39 35 33 33 32 32 33 34 36 37 36 32 32 33 32 31 34 37 39 39 38 42 48 54 58 61 64 66 67 64 59 56 57 60 64 63 61 63 68 69 66 67 69 69 70 73 75 76
30 27 31 36 35 32 33 35 36 37 38 39 40 42 43 42 37 33 33 32 30 30 33 34 36 38 34 31 32 31 31 33 34 37 42 44 46 51 55 59 61 64 69 69 62 56 54 56 61 64 63 63 65 63 62 63 65 66 68 68 71 74 75
29 27 26 30 34 33 32 34 36 37 38 38 39 41 43 42 38 33 32 32 30 28 29 31 33 35 33 30 29 30 30 31 32 37 44 52 56 56 55 56 56 58 64 65 60 56 57 58 62 64 59 56 56 54 55 61 63 63 62 60 62 66 68
29 28 26 29 35 34 31 34 35 35 35 36 37 39 42 42 39 34 30 31 31 28 27 29 32 35 32 27 26 28 28 30 34 40 46 55 62 59 56 59 58 57 60 61 59 58 59 61 61 61 55 47 45 48 53 59 59 58 58 58 60 61 62
29 29 28 28 33 33 31 33 34 33 33 33 34 37 40 42 40 35 29 29 32 31 30 30 34 37 34 28 25 26 28 32 36 42 50 57 58 55 58 64 62 58 57 56 57 56 57 58 58 57 55 47 38 40 47 52 54 54 56 58 60 59 60
28 30 29 29 32 32 31 31 31 31 32 31 32 35 40 41 39 35 30 28 31 33 33 32 32 36 38 35 31 29 29 33 39 46 53 55 52 53 58 62 60 58 56 52 53 53 51 52 52 51 51 44 35 33 37 40 45 49 51 53 55 53 54
29 31 31 32 33 31 30 29 28 29 30 30 32 35 39 39 38 35 30 27 31 34 35 36 35 36 38 40 40 37 34 35 42 49 51 48 48 51 55 57 55 54 51 47 46 45 43 42 42 42 42 39 35 33 33 34 38 41 43 45 49 48 49
30 33 33 34 34 31 29 28 26 28 31 32 35 37 39 40 38 35 30 27 30 34 35 36 36 35 36 41 45 45 43 43 47 48 47 48 50 50 50 52 49 45 43 43 42 41 39 38 38 39 40 38 37 35 35 37 39 39 40 42 46 47 48
29 31 31 33 34 31 30 28 27 28 32 35 38 40 40 39 37 32 29 28 30 32 34 34 35 35 36 41 45 48 49 51 49 44 42 46 48 46 44 44 43 42 41 41 40 39 40 38 37 39 40 40 42 41 38 40 43 43 41 43 47 49 50
29 31 30 30 31 30 29 29 28 30 35 39 40 40 38 37 34 31 30 31 30 31 33 33 34 36 36 40 44 47 50 50 48 44 41 40 41 41 41 38 39 41 41 41 40 38 37 36 37 40 41 42 47 48 44 43 45 46 44 45 48 51 53
25 30 31 28 27 28 27 29 32 35 40 43 42 40 39 37 34 32 31 32 31 32 33 33 35 36 36 39 43 46 49 49 48 48 45 41 39 42 43 41 40 41 42 44 44 41 38 38 39 43 46 48 52 53 50 48 47 47 47 47 49 52 54
20 24 27 27 27 28 28 30 35 39 43 44 42 40 41 39 37 33 31 31 31 31 33 34 36 37 37 39 42 45 48 48 48 49 47 44 44 46 46 45 43 43 45 46 45 42 40 39 40 45 50 55 59 58 55 52 48 46 46 46 48 50 53
19 20 24 26 26 27 28 30 33 38 43 43 41 42 42 41 38 34 31 31 30 31 34 35 37 38 39 40 42 45 47 47 47 47 47 47 48 48 47 47 47 48 50 50 47 45 43 40 41 45 50 56 61 61 58 56 51 47 45 45 48 49 51
18 18 22 24 25 26 29 30 30 34 41 42 41 42 42 41 40 36 33 31 30 31 32 34 36 39 41 43 45 46 47 47 47 48 49 50 50 51 51 52 54 56 57 56 52 48 45 40 40 44 49 53 59 61 61 60 55 50 48 47 48 50 53
15 15 18 21 24 26 29 31 31 34 40 42 40 40 41 41 41 38 34 32 32 32 31 33 36 39 42 44 46 48 48 48 49 50 49 49 51 55 57 58 60 61 60 57 53 50 47 41 40 45 49 52 58 61 63 65 61 55 53 50 49 51 55
15 16 17 20 24 27 29 32 33 35 39 41 39 39 41 41 41 38 35 34 36 35 33 34 38 41 44 46 48 49 48 48 50 51 50 52 57 62 64 64 63 61 58 55 53 52 49 44 44 49 51 54 60 63 66 68 64 59 56 53 52 53 58
14 17 19 23 26 28 29 30 31 33 36 39 39 39 40 41 40 39 36 37 39 39 38 40 43 46 49 51 53 54 51 50 53 54 53 57 61 64 65 63 60 58 56 55 53 52 50 49 51 54 57 60 62 66 69 67 63 61 57 54 54 57 62
13 18 21 22 25 27 28 28 29 32 35 37 39 39 40 40 40 40 40 40 41 41 43 45 47 51 53 53 54 54 53 55 57 57 56 57 59 61 61 59 56 56 56 55 54 53 52 54 58 61 65 66 66 69 70 64 60 61 58 56 58 58 60
13 16 18 19 22 26 29 29 30 34 35 35 36 38 40 42 43 43 43 42 43 44 46 47 50 52 53 52 52 53 54 55 55 55 55 56 58 59 59 58 57 58 58 58 57 56 54 55 60 65 69 69 68 70 68 62 60 62 60 60 61 60 59
11 11 13 16 20 25 29 30 32 35 35 35 36 39 41 43 44 44 44 44 45 46 46 48 51 52 52 51 52 53 52 51 51 52 53 53 56 58 59 60 61 60 60 60 59 57 55 57 62 66 68 68 68 67 65 62 63 64 62 62 61 60 62
12 11 11 15 20 24 28 31 33 34 36 37 37 39 41 43 43 44 45 46 46 46 48 50 50 48 47 47 46 45 47 48 51 54 55 55 58 61 61 61 62 61 60 59 57 57 58 61 64 65 65 66 65 63 61 61 64 64 62 61 59 60 64
14 13 13 17 21 25 29 32 35 36 36 37 37 38 40 43 45 46 47 47 48 49 50 49 44 40 38 37 37 39 44 50 53 57 61 63 63 63 61 60 60 59 58 56 54 56 59 61 62 62 61 60 58 57 57 57 62 66 65 61 59 60 63
17 16 16 19 24 28 31 33 35 36 35 36 37 38 40 43 46 47 47 47 46 44 42 39 36 34 34 35 37 39 45 53 56 59 64 67 65 62 60 58 56 54 53 52 52 54 56 56 55 53 51 51 50 52 53 54 59 64 64 61 59 59 59
19 19 20 24 27 31 32 33 34 35 36 38 39 40 43 45 45 42 41 41 39 36 34 33 33 35 36 38 39 41 48 56 57 56 60 65 65 61 58 55 52 49 49 50 51 51 50 48 46 44 44 45 46 49 51 54 56 60 60 59 57 55 52
23 23 25 28 29 31 33 33 35 37 38 37 37 39 41 39 35 35 38 40 39 36 34 35 38 42 42 41 42 45 52 59 58 57 61 64 62 59 54 50 48 45 43 43 44 45 46 45 44 43 42 43 47 50 52 55 58 58 55 51 48 47 46
28 28 28 28 28 30 32 33 34 35 34 34 35 36 35 33 34 38 43 44 41 38 36 38 44 48 47 46 49 52 56 59 61 62 63 61 59 55 49 44 43 40 37 37 39 42 45 46 45 45 44 44 47 51 54 59 61 55 49 45 44 45 46
31 30 30 30 30 31 32 34 36 36 36 38 39 38 37 37 40 42 41 39 38 37 38 40 44 48 50 54 57 57 57 59 62 63 62 60 57 51 44 40 40 38 36 36 39 44 47 46 46 46 47 47 49 52 57 62 61 53 46 46 49 49 48
33 32 32 33 34 35 37 39 40 40 40 41 40 38 38 39 39 37 36 36 38 39 40 40 43 49 56 59 58 57 57 59 61 62 61 60 57 50 42 40 40 38 37 38 42 46 47 47 46 47 48 51 53 54 57 61 59 55 53 52 52 51 50
39 39 39 39 38 38 38 38 38 39 40 40 38 39 42 41 39 37 38 40 41 41 43 47 51 56 59 57 55 56 57 58 60 61 59 58 57 52 47 43 40 39 40 42 45 48 48 47 47 47 49 53 55 56 59 60 58 59 60 56 51 51 52
45 45 46 47 46 43 40 40 40 42 44 44 44 46 48 45 42 42 44 46 46 45 48 55 59 59 56 53 55 58 59 60 62 62 60 58 56 54 50 46 41 39 42 45 48 50 51 51 51 51 52 54 55 56 58 58 56 58 57 51 49 50 50
51 50 48 48 49 49 48 48 48 48 49 51 51 51 49 48 49 50 51 53 54 52 52 55 58 57 54 54 56 59 61 61 60 60 59 57 55 53 50 46 42 41 44 48 49 48 48 49 52 54 55 55 54 53 54 55 54 52 48 43 42 44 42
54 54 52 49 48 48 49 51 51 50 51 53 55 54 52 52 54 55 55 56 57 54 52 55 57 55 54 56 58 60 61 59 57 58 57 55 55 54 49 43 43 45 47 48 47 47 46 48 51 55 56 55 53 51 50 48 46 43 40 39 40 41 40
57 57 56 55 53 50 50 51 51 50 50 53 55 56 57 57 57 58 57 56 56 54 54 57 58 56 56 59 60 61 60 57 56 58 58 56 56 55 48 44 46 48 47 47 47 47 47 48 50 54 54 51 49 47 43 40 38 39 40 43 44 45 46

ECMWFFLT1_prec_cthk_015.txt.gz
RH
42 41 38 37 38 36 33 33 36 37 39 40 39 38 38 36 35 34 34 34 35 36 37 37 36 35 32 28 23 20 17 16 18 21 24 27 29 31 33 32 30 28 27 29 33 33 34 38 40 42 45 44 45 49 53 54 50 43 39 41 44 48 50
40 40 38 39 38 35 34 34 34 35 37 39 38 39 39 38 36 36 36 35 35 35 36 37 37 36 33 31 27 23 20 18 19 23 26 29 31 32 32 31 29 27 28 32 34 36 40 45 46 47 47 45 46 50 51 51 47 41 38 35 36 40 43
39 40 40 41 39 35 34 35 36 36 37 38 39 39 39 38 37 36 36 36 36 35 35 35 36 36 34 31 29 27 24 23 23 26 29 31 32 32 32 31 29 27 30 34 36 41 47 51 51 51 50 48 48 50 49 46 42 40 37 33 31 33 35
41 43 42 42 39 35 36 38 38 38 37 37 38 39 38 38 37 36 36 36 35 35 35 34 34 35 33 31 28 26 25 25 27 30 32 32 32 32 33 32 30 30 32 35 38 45 51 52 52 54 53 51 49 49 48 44 40 38 36 32 30 31 32
41 44 43 41 37 36 39 40 39 39 38 37 38 38 38 38 37 36 36 36 36 35 34 33 33 33 32 30 29 27 24 23 27 31 32 33 32 32 32 32 31 32 33 37 42 47 50 52 53 53 52 50 48 47 46 44 39 36 33 32 32 32 33
40 41 41 39 37 37 39 39 38 38 37 37 37 37 36 35 34 35 35 36 37 37 36 34 33 33 31 30 30 29 26 24 27 29 31 32 31 30 30 30 30 32 36 42 45 47 50 52 49 47 46 45 44 43 42 42 40 35 33 33 33 33 33
38 37 37 36 36 37 38 38 37 36 36 37 36 35 34 33 33 34 35 37 38 39 38 36 35 33 31 30 30 30 29 27 27 28 29 30 29 28 29 29 30 34 40 45 47 49 51 48 43 41 41 40 40 40 40 39 39 37 34 32 32 32 32
36 35 34 33 35 36 35 35 34 34 34 35 34 33 33 32 33 34 36 37 39 40 39 37 36 34 33 31 30 30 29 28 27 27 27 27 27 28 29 29 30 36 43 48 49 49 46 41 40 40 39 38 39 39 39 38 39 39 36 33 33 34 34
36 36 33 32 33 34 33 33 34 34 34 34 32 32 33 34 34 35 36 37 39 41 41 40 38 35 33 32 30 30 29 26 26 25 26 26 27 27 28 29 32 39 45 47 45 42 39 38 38 39 38 39 39 39 39 38 39 41 40 37 36 37 39
36 34 33 33 32 32 32 33 36 36 35 34 33 33 34 35 35 36 36 37 38 40 41 41 39 36 35 33 31 30 30 27 26 26 26 26 26 26 27 29 34 41 45 44 39 36 36 37 37 38 39 40 41 42 42 41 41 43 43 41 38 38 40
34 31 31 34 34 33 34 35 37 36 34 34 33 33 35 36 37 36 36 37 38 39 41 41 38 36 36 35 32 31 29 28 28 26 25 25 25 25 27 30 36 42 41 38 35 34 35 36 38 39 40 41 43 45 46 47 47 46 46 42 39 38 39
34 32 32 34 34 34 36 37 37 36 34 33 32 34 35 36 35 35 35 36 38 39 40 40 38 36 36 36 34 32 31 30 28 25 24 24 24 25 27 31 37 40 37 33 33 33 34 35 38 39 40 42 44 46 48 50 49 50 50 48 43 38 38
35 35 34 33 33 34 35 37 37 37 35 34 32 32 33 34 34 34 34 35 36 37 38 39 38 36 36 37 36 36 34 30 27 24 23 22 23 24 26 30 35 37 34 32 31 31 32 36 38 40 42 42 44 46 48 50 51 52 54 54 49 42 39
34 35 35 34 35 36 36 36 37 37 36 35 34 32 33 33 34 34 33 32 33 34 35 37 37 36 36 37 37 38 35 31 27 24 22 20 22 24 26 29 33 36 35 33 31 30 31 35 38 40 42 42 44 46 49 51 53 53 55 57 54 45 39
35 35 36 36 37 37 36 35 34 35 36 36 36 35 34 33 33 33 33 32 31 32 33 35 36 36 36 36 37 38 36 32 28 26 23 21 22 24 27 29 32 35 36 35 34 33 33 35 39 41 43 44 46 48 51 53 54 55 56 56 53 46 38
36 35 35 36 37 36 34 33 33 33 32 33 35 35 34 33 32 32 32 32 31 31 32 34 35 35 36 36 36 37 36 33 30 29 28 25 24 25 27 28 31 34 37 38 39 39 39 40 43 45 46 48 50 53 54 56 56 56 56 54 51 46 40
37 36 35 35 36 35 33 32 32 32 31 31 31 32 32 32 32 31 31 31 31 31 31 33 34 34 35 35 35 35 36 34 32 31 31 28 27 27 28 29 33 37 41 43 45 46 47 47 48 49 51 52 55 57 57 58 59 58 58 56 53 50 44
38 39 38 37 37 36 34 34 33 33 35 34 32 31 31 31 32 32 31 30 31 32 32 32 33 33 33 34 34 34 36 36 35 32 31 31 32 32 33 35 39 44 47 48 49 50 51 52 52 52 53 56 59 60 60 59 60 61 61 59 57 55 51
38 41 39 37 37 36 35 35 35 35 37 36 34 32 30 29 29 30 31 31 33 33 32 31 31 31 32 32 32 32 34 36 36 34 34 36 37 38 39 42 46 49 51 51 51 52 53 54 54 54 56 59 60 60 60 61 63 64 64 62 60 59 58
34 38 39 36 35 35 36 37 37 37 36 37 36 33 31 30 29 29 30 32 34 33 31 30 30 30 30 30 30 31 33 35 36 38 40 41 42 43 44 47 50 51 52 52 52 53 53 53 54 55 58 60 59 59 60 62 63 65 64 62 59 59 61
29 31 36 36 34 35 37 37 36 36 35 35 35 35 34 32 30 30 31 32 33 33 31 30 30 30 28 28 29 29 31 34 38 42 45 46 46 47 48 50 51 53 53 53 53 53 53 53 53 55 57 58 59 59 59 59 59 60 60 59 56 57 60
28 28 32 36 36 37 39 37 34 33 33 32 32 35 37 35 31 31 32 33 32 32 31 31 31 30 28 26 26 27 28 33 39 43 46 47 49 50 51 51 52 52 53 53 53 54 53 52 53 55 56 57 59 59 59 58 56 55 55 55 53 54 55
27 27 28 32 35 37 37 37 35 33 32 31 31 32 34 34 33 33 33 31 30 31 32 32 30 30 28 25 25 25 27 31 37 41 44 46 48 51 52 52 52 51 52 53 53 54 52 52 53 54 54 57 59 60 60 58 54 51 52 51 49 48 48
25 25 25 28 32 35 35 36 37 36 34 34 31 30 31 33 34 34 34 31 29 30 32 32 30 29 27 25 25 26 27 30 34 39 43 45 47 50 52 53 52 52 52 53 54 53 53 53 54 54 56 60 62 62 60 55 51 50 50 50 48 46 46
23 24 24 25 28 32 34 35 37 37 37 36 33 29 30 33 34 33 32 31 30 30 30 31 30 28 25 25 25 28 30 31 34 37 42 45 47 49 52 53 53 52 53 54 55 54 54 55 54 54 59 63 63 62 59 54 53 53 52 52 52 50 48
22 21 21 21 24 27 31 33 33 33 34 36 34 31 32 34 34 32 31 31 31 31 30 29 29 27 26 24 25 29 32 33 35 38 42 45 46 49 52 53 52 53 56 57 57 56 56 56 55 56 60 63 63 62 58 54 53 54 53 53 54 52 49
19 19 19 20 21 23 28 31 32 32 32 32 32 32 33 33 32 31 30 30 31 29 28 29 29 28 27 26 26 29 32 33 35 40 43 45 47 51 54 54 53 56 59 59 58 57 57 57 56 56 58 61 62 59 56 54 54 53 51 51 53 52 50
20 20 21 23 23 23 26 28 30 32 33 33 31 32 32 32 30 28 29 30 29 27 26 28 29 28 28 28 28 30 33 35 37 41 44 46 50 54 54 55 57 59 59 57 56 59 60 58 57 56 57 60 61 59 56 56 55 52 49 50 53 53 51
23 22 24 27 28 26 25 25 26 30 35 38 39 37 36 35 32 29 30 31 30 29 28 28 28 30 31 32 32 33 36 38 40 42 45 49 52 55 56 58 60 60 57 55 58 61 61 58 57 57 58 62 64 61 57 57 56 52 49 50 54 55 53
29 28 27 28 30 29 30 29 28 31 37 43 45 44 40 37 34 33 34 34 34 34 32 28 28 31 34 36 38 39 40 42 45 47 49 51 54 57 59 59 59 57 56 57 61 62 61 59 58 59 62 64 63 60 59 59 56 51 48 50 54 56 53
33 33 32 31 29 28 30 33 34 33 37 44 48 49 46 41 37 36 37 37 36 36 34 29 28 33 37 40 44 45 45 49 52 53 53 55 58 60 59 57 56 56 57 59 62 62 61 59 58 61 65 65 62 58 57 56 53 49 48 49 53 55 53
35 35 34 34 33 31 31 34 38 38 39 41 47 55 58 53 44 39 39 39 38 36 34 32 32 36 42 45 47 49 50 55 59 59 59 61 61 59 56 53 53 55 56 58 59 60 59 56 56 61 64 63 59 55 52 52 52 49 48 50 53 53 50
37 37 37 37 37 37 36 35 38 41 42 43 46 55 63 64 58 48 40 38 38 37 37 38 39 43 48 52 56 57 60 63 66 64 62 61 57 53 52 50 50 52 54 55 57 60 60 58 58 62 63 59 57 55 52 52 51 49 49 51 51 50 49
40 39 39 38 37 39 40 40 40 41 42 42 43 47 55 66 72 65 49 41 42 45 47 50 52 55 59 63 66 68 69 70 67 61 55 53 51 49 50 51 51 53 55 56 58 61 61 61 61 61 59 55 53 53 52 51 50 50 50 51 50 49 49
40 38 38 37 35 35 37 39 42 43 42 39 39 43 49 58 71 75 65 54 52 56 60 62 63 62 63 66 70 73 71 67 59 51 47 48 49 49 51 53 55 56 57 58 60 62 62 62 61 58 54 51 50 51 52 51 50 50 51 49 48 48 47
41 40 41 41 39 37 38 40 42 45 45 42 40 44 49 54 63 74 74 67 65 67 67 66 66 65 68 72 73 71 65 60 54 48 45 47 48 49 53 58 60 59 59 60 62 64 64 63 60 54 51 50 51 53 55 53 51 52 50 49 48 47 46
44 42 43 47 46 41 39 41 42 44 47 47 46 47 50 55 67 78 80 74 71 70 69 70 71 73 75 74 70 65 59 55 54 52 50 51 52 53 57 61 63 64 64 64 64 64 61 58 54 53 54 54 54 56 56 55 53 53 51 50 49 48 48
47 46 51 61 66 63 55 49 46 47 49 49 48 51 57 65 78 88 86 78 71 69 72 74 73 71 69 66 63 61 59 56 55 56 57 58 59 60 60 60 62 65 66 63 60 59 55 52 53 56 58 57 57 56 55 55 55 54 52 50 49 48 47

ECMWFFLT1_prec_cthk_021.txt.gz
RH
36 38 38 38 39 41 41 37 34 32 30 30 31 31 33 34 36 36 34 33 32 32 33 32 32 30 29 29 29 30 31 31 31 29 27 25 24 23 22 21 22 25 30 32 33 35 35 34 33 35 39 43 45 47 48 48 48 46 43 37 33 33 35
33 34 36 37 38 39 41 40 38 34 31 30 31 32 33 33 34 37 38 37 35 34 34 34 34 33 32 31 29 30 31 32 32 32 30 28 25 24 23 22 22 25 31 34 34 35 33 31 30 33 39 43 44 47 49 49 47 45 41 35 32 33 32
29 30 32 34 36 37 39 41 41 39 35 33 33 32 32 33 35 37 40 40 38 36 36 36 35 34 33 33 32 31 32 33 34 33 32 30 27 24 23 23 23 26 32 35 35 34 32 30 30 34 40 42 43 45 48 47 45 43 40 36 35 33 30
26 27 30 32 34 36 38 39 41 40 38 35 35 33 32 34 37 38 40 40 39 38 38 37 36 35 34 33 32 32 32 33 33 33 33 32 31 28 25 23 24 27 33 35 35 33 31 30 31 36 41 43 44 45 45 44 43 41 39 37 37 34 31
26 26 29 31 32 34 37 38 40 40 39 37 35 34 34 36 39 40 39 38 39 39 39 39 37 35 33 32 31 32 32 31 31 31 32 32 33 30 25 23 24 28 33 35 35 33 31 31 33 38 43 46 47 44 43 42 40 39 38 37 36 34 32
24 24 28 31 32 33 35 37 38 39 39 38 36 35 36 38 40 40 40 39 40 41 42 42 39 35 32 31 30 31 31 31 30 29 31 32 32 30 25 24 25 29 32 34 34 32 31 33 37 40 45 49 46 42 41 40 39 37 36 36 35 34 35
21 22 27 32 34 34 35 36 37 38 38 38 37 36 38 39 40 41 42 42 42 43 43 42 39 34 32 31 31 31 31 31 30 29 29 30 30 29 26 24 26 29 32 33 33 31 31 35 40 42 45 48 44 41 41 39 36 35 34 34 35 36 37
25 23 25 30 32 34 36 37 37 37 38 40 41 40 39 40 41 43 44 44 44 44 43 41 38 35 35 34 33 32 32 31 30 29 28 27 27 26 25 24 26 29 31 32 32 30 31 37 42 44 45 45 43 41 41 38 35 35 35 36 37 38 40
28 26 26 29 31 33 36 38 39 40 41 44 45 42 40 41 43 44 44 43 44 44 42 40 37 37 37 37 36 34 33 32 30 29 27 26 24 23 23 23 25 29 32 32 31 30 34 40 44 45 44 44 43 41 39 37 37 37 38 40 41 42 44
29 28 29 31 31 32 35 38 41 43 44 46 46 43 42 42 42 42 42 42 43 43 41 39 39 39 39 39 38 36 34 33 31 30 28 25 24 23 23 24 27 30 31 31 30 32 37 42 46 46 45 44 42 39 37 38 39 40 41 44 46 48 48
30 30 31 32 33 34 35 36 38 41 43 43 43 41 42 41 41 41 41 41 41 41 41 40 40 41 40 41 41 39 37 34 32 31 28 26 26 26 26 27 28 29 29 30 30 33 39 45 48 47 44 42 40 38 37 39 41 43 45 47 50 51 51
29 30 31 31 33 35 35 34 35 37 39 39 40 40 41 41 41 41 41 41 40 41 41 40 41 42 42 42 42 40 39 36 33 32 30 27 26 29 30 29 27 27 27 29 31 35 42 47 47 45 43 41 39 39 40 41 43 45 47 49 51 52 53
27 29 29 29 31 34 36 35 35 35 37 39 40 41 41 40 39 39 40 40 40 41 41 40 40 41 42 42 41 39 39 38 35 32 32 29 25 27 31 30 26 24 25 28 30 35 43 48 47 44 43 42 40 41 42 43 45 47 47 49 50 52 53
25 26 28 29 32 35 37 37 36 34 35 37 40 42 41 39 39 38 39 40 41 42 42 41 40 41 41 42 42 39 39 39 37 34 33 32 28 26 28 29 27 24 24 27 29 33 42 48 45 43 44 43 42 43 44 46 47 46 47 49 50 52 53
23 23 26 28 31 36 38 38 36 34 32 33 37 40 41 40 39 39 39 41 42 43 42 41 41 40 40 41 41 40 39 40 38 36 35 34 31 27 27 28 28 25 25 26 28 33 42 46 43 42 43 44 44 44 45 46 46 45 46 49 51 52 53
21 20 22 26 29 34 37 37 35 34 32 32 34 38 41 41 40 39 40 41 43 43 42 42 42 41 40 40 39 40 40 40 39 36 36 36 34 30 27 28 29 28 27 26 27 35 43 45 41 41 43 44 45 45 45 45 46 46 48 50 52 54 53
20 18 19 23 27 31 35 36 36 35 34 33 33 36 39 40 40 40 40 41 42 43 43 43 43 42 40 39 39 40 42 42 40 37 36 37 36 33 30 29 30 30 29 27 29 36 43 43 40 40 43 44 45 45 44 44 46 48 49 51 54 55 54
22 19 18 22 27 29 31 33 35 35 34 33 34 35 36 37 39 40 41 42 42 42 43 44 43 43 41 40 41 42 42 42 42 40 37 37 38 36 33 31 31 31 31 30 29 34 40 40 38 40 42 44 45 44 42 44 46 48 49 52 55 57 55
21 20 21 23 26 29 30 32 33 34 33 32 33 34 34 34 36 38 40 41 41 42 44 44 43 42 41 42 42 42 42 43 44 42 40 38 38 39 36 34 32 31 31 30 30 32 36 35 35 38 41 43 44 42 42 44 46 47 49 53 58 60 59
23 23 24 25 26 29 31 33 34 35 35 34 33 35 36 36 36 38 40 41 42 43 43 43 42 41 41 41 42 42 42 43 44 43 42 40 40 41 39 36 34 32 31 31 32 32 32 31 32 35 39 41 42 42 41 43 45 46 50 56 62 64 63
22 24 26 28 26 26 28 31 33 34 35 35 35 35 37 38 37 38 40 41 41 40 40 39 39 39 40 40 41 41 41 42 43 43 43 42 42 42 40 37 36 35 33 33 31 30 30 30 30 32 36 39 40 41 42 42 44 48 54 60 65 67 66
21 22 25 27 27 26 27 28 28 29 30 31 34 35 36 36 37 38 39 38 38 38 38 38 38 38 39 39 40 40 39 39 40 42 44 44 44 42 40 39 37 36 35 33 31 31 32 31 29 30 34 37 39 41 42 42 47 53 58 62 67 69 69
20 21 24 27 27 28 30 29 28 28 29 29 31 33 35 36 36 37 38 38 37 38 39 39 38 38 39 38 39 40 40 38 38 40 44 45 45 43 41 39 38 37 36 34 33 33 32 29 29 31 33 36 39 41 42 45 51 56 61 65 68 70 70
20 21 25 27 27 27 29 30 29 29 30 30 30 30 32 35 35 36 37 38 38 40 41 41 40 39 39 39 39 39 40 40 39 41 44 45 45 43 41 39 39 38 36 35 34 33 31 32 33 34 34 36 38 40 43 48 53 58 63 66 67 68 67
19 21 25 28 29 28 27 27 28 28 28 29 29 31 32 34 34 35 35 36 37 40 40 39 39 39 39 40 39 39 40 41 42 43 45 45 44 44 42 40 39 39 37 37 37 36 37 39 39 37 36 36 38 42 47 51 55 60 64 65 65 65 65
18 19 22 26 29 30 28 27 28 28 29 28 30 33 34 34 35 36 35 35 36 37 36 35 35 36 38 40 41 41 42 42 42 44 45 45 45 45 44 41 40 40 40 40 42 43 44 44 44 42 39 38 42 47 51 54 57 60 63 63 63 63 63
17 18 19 22 25 26 26 27 27 28 29 29 31 33 33 34 36 36 36 38 38 35 32 31 33 35 38 41 43 43 42 42 42 43 44 45 46 47 46 44 43 41 41 43 47 48 49 47 46 44 42 43 47 51 53 55 58 61 63 63 62 61 61
16 16 17 19 22 24 25 26 27 27 27 28 29 31 31 32 33 34 36 38 36 32 31 33 34 36 39 43 45 44 44 44 44 44 44 46 48 48 47 45 44 42 42 45 49 50 49 48 48 47 47 49 52 54 55 57 60 63 64 62 61 61 61
17 16 16 17 18 21 22 23 24 25 26 27 27 29 30 31 32 33 35 35 33 31 33 35 37 38 40 42 44 45 46 47 47 45 45 46 48 48 48 47 47 46 44 45 48 51 50 51 51 51 53 54 55 56 59 61 64 66 64 62 61 61 62
21 20 19 18 18 18 19 20 21 22 23 24 24 25 26 28 31 33 34 33 32 32 33 35 37 40 41 41 41 43 45 47 47 46 46 46 47 49 50 49 49 48 46 45 48 51 52 54 55 56 58 58 59 62 66 68 69 67 63 62 63 63 63
27 24 22 21 21 21 20 20 20 20 21 21 21 21 23 25 28 29 30 29 30 33 34 35 37 41 42 41 41 42 42 43 45 44 44 45 47 48 51 51 51 52 49 47 47 50 53 55 56 59 61 62 66 70 71 72 73 68 62 62 64 64 64
31 29 28 26 24 23 23 22 22 22 21 21 21 22 23 25 26 26 26 27 29 32 33 36 39 41 41 40 41 41 41 43 44 43 43 44 45 47 50 52 52 53 54 55 53 52 54 56 57 59 63 65 69 70 69 71 75 70 62 61 64 64 62
34 33 32 31 29 27 26 25 24 24 24 24 25 25 26 28 29 28 27 27 29 30 31 33 36 38 39 38 37 39 41 42 43 43 43 43 44 46 49 52 53 52 54 59 60 57 56 56 55 58 62 63 65 66 67 73 79 73 63 61 63 63 61
39 37 35 35 34 32 30 29 28 28 27 26 27 28 28 29 31 33 33 32 32 32 32 31 32 34 35 36 37 38 40 41 42 44 45 45 45 45 45 48 52 52 51 54 58 59 58 57 59 63 65 64 65 67 69 74 77 72 65 61 60 59 59
42 40 38 36 34 33 32 31 31 31 30 29 29 29 29 29 30 33 36 37 37 37 36 34 34 34 34 35 36 36 36 37 40 43 46 47 47 47 47 46 48 50 52 52 55 57 56 57 63 67 67 67 69 67 65 66 69 68 65 61 58 57 58
41 40 38 36 35 33 32 31 31 32 32 31 31 31 32 32 32 32 33 35 38 39 40 40 39 38 37 37 36 36 36 36 38 40 44 48 49 50 52 52 49 50 51 51 55 62 65 67 69 67 65 69 71 67 61 59 59 60 63 62 59 57 59
43 41 40 39 37 35 33 31 30 32 33 34 33 34 35 36 35 34 34 34 35 37 39 41 40 40 40 39 39 38 39 39 39 40 43 45 47 50 55 58 58 58 55 53 58 69 75 77 76 73 70 72 73 68 62 57 53 57 62 60 57 59 63
47 45 44 42 40 39 37 35 34 36 39 39 38 38 39 38 37 36 35 35 35 36 38 40 40 39 38 38 39 39 39 40 42 44 46 48 51 52 55 58 61 62 61 61 66 73 75 76 76 76 76 75 72 68 61 56 56 61 61 55 54 60 64

ECMWFFLT1_prec_cthk_024.txt.gz
RH
40 42 42 43 45 46 46 44 42 41 38 36 34 32 31 31 31 29 27 24 23 22 22 23 23 24 25 25 25 26 27 28 29 28 25 23 21 21 21 21 21 19 19 20 25 31 37 40 41 44 45 44 40 41 43 47 49 48 47 47 45 42 40
37 38 39 40 42 44 46 45 45 44 41 38 34 33 32 32 33 34 33 31 29 27 26 26 27 27 27 26 26 25 26 27 29 30 30 27 25 22 21 21 21 20 19 20 24 30 36 40 42 44 44 42 39 40 43 47 51 50 47 45 43 39 36
33 34 35 37 39 41 43 45 45 45 44 40 36 33 32 30 31 33 35 36 36 35 33 32 31 31 30 29 29 28 27 28 29 31 32 30 28 25 23 22 22 21 20 20 23 29 35 39 43 44 43 40 38 39 42 48 52 50 46 44 42 37 34
30 32 32 33 35 38 41 43 44 45 44 43 39 35 32 30 30 33 36 37 39 40 40 37 34 32 32 32 32 30 29 29 30 32 33 32 31 29 27 24 23 22 22 21 23 28 33 38 41 43 40 38 38 39 42 48 51 48 44 42 40 37 34
27 30 30 30 32 35 38 40 42 43 44 44 41 38 35 33 34 36 38 38 40 41 42 40 38 35 35 35 34 32 31 31 31 32 33 34 33 32 30 27 25 24 23 22 23 26 31 35 39 41 38 36 37 39 43 49 50 46 42 40 39 38 36
24 26 27 28 29 31 34 36 38 41 43 44 43 40 37 36 37 38 39 40 41 42 43 43 42 40 39 38 35 33 33 33 33 34 34 34 34 33 32 30 28 27 25 24 23 25 29 33 36 37 35 34 36 40 44 48 48 44 41 39 38 37 37
22 22 23 25 27 29 32 34 36 39 41 43 44 43 41 39 39 38 39 41 42 43 43 42 41 42 42 40 37 35 34 34 35 35 35 34 33 33 32 31 30 29 28 27 25 25 29 32 33 34 34 33 37 42 45 47 45 42 40 39 38 37 39
21 23 22 22 26 29 31 34 36 37 40 43 44 44 44 42 40 39 40 41 43 44 43 41 40 42 42 41 37 35 35 35 35 35 35 34 33 32 31 30 30 30 30 28 27 27 30 32 33 33 32 33 38 44 46 45 43 40 38 38 37 37 39
19 23 23 21 24 30 32 34 36 38 40 43 44 44 44 42 40 40 40 41 43 43 43 42 42 43 43 41 38 36 37 36 35 35 34 33 32 30 29 29 30 31 30 30 30 31 32 33 32 32 31 33 39 46 46 45 43 39 38 38 37 38 39
16 20 22 21 22 28 32 33 36 38 40 42 43 43 42 41 41 41 41 43 43 43 44 45 45 44 43 41 38 38 39 38 37 35 34 33 31 30 28 27 29 30 30 31 33 34 34 34 32 31 30 34 41 46 47 46 42 39 38 38 38 40 41
14 17 20 22 21 23 27 30 34 37 39 41 43 43 43 42 42 43 43 44 43 44 46 47 46 45 43 40 40 41 41 41 40 37 35 33 32 32 29 27 27 28 28 30 33 35 35 34 32 30 31 36 43 46 47 46 42 39 38 39 40 43 44
13 16 20 24 23 21 22 28 33 36 38 40 42 44 46 46 46 46 45 45 44 45 47 47 46 45 43 41 41 41 42 42 42 41 39 37 36 34 32 29 28 27 27 29 33 35 35 34 32 29 32 39 44 44 44 44 41 39 39 40 42 44 47
13 15 19 23 23 22 23 28 33 35 36 38 39 42 44 45 47 46 45 45 45 45 45 45 45 45 42 41 41 41 42 42 43 43 44 43 41 38 34 31 29 28 28 30 34 35 34 32 30 29 32 40 44 44 42 42 41 41 41 41 43 46 49
12 14 16 20 23 23 24 27 32 33 34 36 37 38 40 42 43 44 44 44 44 45 44 44 44 43 41 41 41 40 41 42 44 45 46 46 44 42 38 34 31 29 29 32 35 34 32 30 29 29 32 38 42 42 41 41 41 41 42 44 45 46 48
10 11 12 16 22 25 23 25 31 33 34 36 36 36 38 39 40 42 43 43 43 43 43 42 42 41 40 40 39 39 40 43 45 46 46 47 45 43 41 39 34 31 30 31 33 32 30 28 28 29 31 37 40 40 39 40 41 42 44 46 46 46 46
9 10 9 13 20 24 22 24 28 32 34 36 36 35 35 36 38 40 41 42 42 42 41 42 42 41 41 39 38 39 42 44 45 46 47 47 46 44 43 40 37 34 31 32 33 31 29 27 28 28 30 35 38 37 37 39 40 42 45 46 46 45 44
10 11 10 12 17 20 21 23 26 30 33 34 32 33 33 32 35 39 41 41 41 40 41 42 43 43 42 39 38 40 42 43 44 46 46 46 46 45 43 42 40 37 33 32 32 32 31 29 27 27 28 33 37 36 36 38 40 43 45 46 45 44 43
10 10 11 12 14 17 18 20 23 28 32 31 30 31 30 29 31 35 38 40 39 39 41 42 43 44 43 41 41 42 42 42 44 45 45 45 45 45 44 43 42 38 35 33 31 32 32 30 28 27 27 31 35 35 35 37 40 43 44 44 43 42 42
9 10 11 12 13 15 16 18 21 26 30 31 31 30 28 27 27 30 32 35 38 40 41 43 43 43 43 44 45 44 43 44 45 44 44 44 44 45 45 43 42 40 38 35 32 31 30 28 27 27 28 31 35 35 35 37 41 43 43 43 42 42 42
10 11 12 13 13 14 15 17 20 25 29 32 32 30 28 29 30 32 33 35 38 40 41 41 42 42 43 44 44 44 44 45 45 45 45 45 45 46 46 44 43 42 40 37 34 32 29 28 28 28 29 31 34 35 35 37 40 42 43 43 42 42 42
12 13 14 14 13 14 16 17 18 23 29 32 34 32 31 33 35 36 35 36 37 39 39 39 39 40 41 42 43 43 44 44 45 45 46 46 46 46 46 45 44 43 41 40 37 34 31 29 28 28 29 32 35 36 35 35 39 41 42 43 42 43 43
14 15 15 15 15 15 16 18 18 21 25 29 33 33 33 36 37 36 36 36 37 38 38 38 39 40 41 42 42 42 43 43 44 45 46 48 48 47 46 45 44 43 42 42 40 37 33 30 29 28 29 32 35 36 34 34 38 40 41 42 43 44 45
17 17 17 16 16 16 17 19 19 20 22 25 28 31 34 36 37 36 36 37 37 38 38 39 40 40 41 41 41 41 41 43 45 46 48 50 50 49 46 45 44 43 43 43 43 41 36 33 32 30 31 32 35 35 33 34 37 40 40 42 44 45 46
18 18 18 18 18 17 17 20 20 20 22 24 27 30 33 35 35 34 34 34 35 37 38 38 39 40 40 41 41 41 42 44 46 47 47 47 48 48 47 45 44 44 44 44 45 44 40 36 34 33 32 32 33 33 33 34 36 39 40 43 46 46 45
18 18 18 18 18 17 18 19 21 22 23 25 27 28 29 30 31 32 34 34 35 36 35 36 38 39 40 42 43 43 43 43 44 45 43 43 44 47 48 47 46 46 46 46 46 47 45 40 38 36 34 33 33 34 34 35 36 39 41 45 46 44 45
18 17 17 17 18 18 20 21 21 22 23 24 26 27 27 26 27 29 32 34 35 34 33 34 37 37 38 41 43 43 43 43 44 44 44 43 44 46 48 50 49 48 48 47 47 49 48 45 42 40 37 35 35 35 35 36 38 42 45 46 45 44 45
19 18 16 16 16 17 20 23 24 24 24 25 25 26 27 28 27 27 29 31 32 32 32 34 37 36 37 39 41 41 42 43 44 45 45 47 47 47 48 49 49 49 50 50 50 51 51 49 47 44 41 39 37 36 37 38 41 45 48 46 45 45 47
19 18 17 17 16 16 17 22 25 24 24 25 27 28 29 29 29 30 31 30 30 30 32 35 38 38 38 40 41 41 41 41 42 43 45 47 48 48 46 47 48 49 51 53 52 51 51 50 49 48 46 43 41 40 41 42 44 47 47 46 45 46 48
21 19 18 17 16 16 17 20 23 24 24 25 27 28 29 30 31 32 31 30 30 32 33 35 36 36 37 38 40 41 41 40 39 39 41 43 45 44 43 44 47 49 50 53 53 52 51 51 50 50 49 48 47 46 46 47 47 47 47 46 46 47 51
23 21 19 17 16 16 17 19 22 25 25 24 25 26 27 29 31 32 32 32 33 33 33 33 33 34 35 36 38 38 39 39 38 37 38 40 41 42 41 42 45 46 47 51 54 55 54 52 51 51 52 51 50 50 50 50 49 48 48 48 48 48 52
26 23 21 18 18 17 17 17 19 22 24 24 24 26 28 30 31 32 33 34 34 35 35 34 34 34 34 34 35 37 38 40 41 41 41 42 43 43 43 44 47 47 47 49 53 57 58 55 52 51 49 48 49 52 53 52 52 51 50 50 50 52 56
29 26 23 20 19 18 17 17 17 18 20 22 23 26 29 32 34 36 37 36 36 36 36 36 35 34 33 34 37 40 41 42 43 44 44 46 48 47 47 47 48 48 49 51 54 57 59 59 57 54 51 48 49 51 54 55 54 52 51 53 56 59 60
32 30 27 25 23 21 19 17 17 17 17 19 20 21 23 26 29 33 35 36 35 35 34 34 35 36 37 38 40 41 40 40 40 41 42 45 48 50 51 51 49 49 51 52 52 54 57 59 59 58 55 54 54 52 51 52 53 53 54 57 60 63 64
37 34 32 29 27 26 23 21 20 20 19 19 19 20 20 22 25 27 30 32 33 33 33 34 35 36 37 39 40 39 38 37 37 38 39 40 43 46 48 48 48 47 47 47 47 48 51 55 59 59 57 56 57 55 51 51 52 53 54 57 61 65 68
40 38 35 32 30 29 27 26 25 24 23 22 22 22 22 23 24 25 26 28 30 32 34 36 37 37 38 39 39 39 38 37 36 37 38 39 41 41 41 41 42 42 42 42 43 44 45 48 52 55 57 60 61 59 56 56 54 53 57 66 71 71 71
43 40 38 36 35 32 30 29 27 26 25 25 24 24 25 25 26 26 27 27 29 30 32 34 36 37 39 40 41 41 40 39 38 37 37 38 39 40 40 40 41 42 43 43 43 43 43 43 45 47 54 61 65 63 62 63 63 64 68 73 75 75 74
45 42 40 38 36 34 32 31 29 28 27 26 26 26 27 28 30 30 30 31 31 31 31 32 33 35 36 37 39 40 40 40 39 38 37 37 37 38 39 40 41 43 45 46 45 45 46 47 47 48 50 55 61 67 72 74 73 75 78 76 73 74 76
48 45 42 39 38 36 36 35 34 32 31 30 30 30 31 33 34 34 35 35 34 34 33 33 33 34 35 36 37 38 38 39 39 38 39 39 39 40 41 41 41 42 43 45 47 48 48 48 50 51 53 55 63 72 78 77 75 77 81 80 77 76 75

ECMWFFLT1_prec_cthk_027.txt.gz
RH
38 38 38 39 43 45 45 43 42 41 40 38 37 32 27 21 18 17 17 17 18 18 19 19 20 21 22 24 26 25 26 26 25 25 23 21 19 18 18 17 18 18 19 19 19 19 21 26 30 34 36 36 36 34 31 34 40 44 44 46 49 47 44
36 36 36 37 38 37 38 40 40 40 39 39 40 37 33 27 21 19 17 18 18 18 18 20 20 21 22 23 24 25 26 27 27 27 27 26 24 21 20 19 18 19 19 19 20 19 20 24 30 34 36 36 36 35 32 33 38 43 44 46 48 46 41
36 36 36 36 36 35 35 36 38 40 40 40 39 39 36 31 26 23 21 20 21 20 19 20 20 21 21 22 22 23 24 25 25 26 27 28 28 26 25 23 21 20 21 20 20 19 19 22 27 33 35 36 36 34 33 32 36 42 45 45 47 45 40
35 35 35 36 36 37 37 35 34 37 39 39 38 39 38 35 30 27 25 24 23 23 22 21 22 24 26 25 24 24 24 25 25 26 27 29 30 30 29 28 25 24 23 22 21 21 20 20 24 30 33 34 34 34 33 33 35 40 44 45 46 44 39
34 34 36 37 37 39 39 39 37 36 37 39 38 38 39 39 35 30 29 29 28 29 29 28 28 29 30 29 27 26 26 26 25 26 27 28 30 31 32 30 29 27 25 25 23 22 21 20 22 27 31 31 33 32 32 33 35 40 43 44 44 42 38
31 33 34 35 36 37 37 38 39 38 38 39 40 40 40 41 39 34 30 30 31 33 36 37 36 37 37 35 32 30 30 29 28 27 27 28 29 31 32 32 31 29 28 28 27 25 23 21 21 25 28 29 30 31 31 32 35 39 42 43 42 41 37
26 29 31 32 32 33 33 34 36 38 39 40 40 41 42 43 42 40 35 31 31 34 37 38 39 42 43 42 39 36 33 31 30 29 28 28 29 32 32 33 32 31 30 29 29 27 25 23 22 23 27 28 29 30 30 31 34 39 42 42 41 39 37
22 25 28 30 30 30 31 32 34 36 38 40 41 41 42 43 43 43 41 35 32 35 37 38 40 42 44 45 44 41 38 35 31 30 30 30 30 31 32 33 33 32 32 31 30 28 27 26 24 24 25 27 28 30 31 31 34 39 42 42 41 39 36
19 22 25 27 29 30 31 30 32 35 37 39 40 40 41 42 43 44 43 39 35 35 37 37 39 42 43 44 44 44 42 39 35 32 31 31 31 31 31 32 32 32 32 32 31 29 28 27 27 26 26 27 28 29 30 30 33 40 44 42 41 39 37
16 18 21 23 25 27 29 30 31 34 36 37 39 40 40 40 41 43 44 43 39 36 35 38 40 42 42 43 43 45 44 41 38 36 35 34 35 34 32 32 31 30 30 30 31 30 29 28 28 27 27 28 28 29 30 29 33 40 44 43 41 40 38
13 15 17 19 20 21 24 27 30 32 34 35 37 39 40 39 40 42 43 44 42 37 36 38 41 42 42 43 45 46 44 40 39 38 38 38 38 36 35 33 32 30 28 28 28 28 27 28 29 29 29 29 29 29 29 29 32 39 42 42 41 40 38
11 14 15 15 16 18 21 23 27 29 32 33 34 36 38 38 39 40 41 42 42 40 38 38 41 43 43 44 46 46 43 39 38 39 40 40 40 39 38 36 35 33 31 28 27 26 25 25 26 27 29 30 29 29 28 29 32 37 40 41 40 39 38
10 11 12 13 14 17 18 20 22 25 29 31 31 32 35 37 38 39 40 41 41 40 38 39 41 43 44 45 46 45 42 38 37 39 41 42 42 43 42 40 39 37 34 31 29 27 25 25 25 26 27 28 29 29 28 28 32 37 39 40 39 39 38
10 10 10 11 12 13 15 16 18 21 25 29 30 28 30 34 37 39 39 39 40 41 41 42 43 44 44 45 46 44 40 37 38 40 42 42 43 43 43 41 40 39 37 34 31 29 27 26 26 27 27 28 28 28 27 27 32 37 38 38 39 38 38
10 9 9 9 9 11 13 15 18 20 23 28 31 30 28 31 35 38 40 41 41 42 43 44 43 43 43 44 43 41 38 38 39 41 42 43 43 43 43 43 41 40 38 36 33 30 28 27 27 29 29 28 27 26 26 27 32 37 38 38 38 38 38
9 8 8 9 9 10 13 16 19 20 21 26 32 32 29 28 31 34 38 41 41 41 41 41 41 42 43 42 40 39 38 38 40 41 42 42 43 44 44 44 43 41 40 39 37 33 30 28 28 30 31 30 27 25 25 27 32 36 38 38 37 37 38
8 8 8 9 10 11 14 17 19 19 21 24 29 33 31 29 30 31 33 37 39 39 38 38 38 40 40 38 37 38 39 38 39 40 41 42 43 43 45 45 44 43 41 41 40 37 34 31 29 29 31 32 29 25 24 26 31 36 39 38 37 37 38
8 9 8 9 9 11 13 15 17 19 21 24 28 32 33 32 32 32 32 33 33 33 34 35 36 37 37 37 37 38 39 39 39 40 41 41 42 43 44 46 46 45 43 42 41 40 37 35 32 31 32 32 30 27 25 26 29 34 38 38 36 36 37
9 9 10 9 9 9 11 12 14 17 19 23 27 29 31 33 34 32 31 30 29 29 30 31 33 35 37 38 38 39 39 40 40 41 41 41 42 44 46 46 45 45 45 44 43 42 41 38 35 34 33 33 31 29 27 26 28 32 36 37 36 36 37
9 10 10 10 9 9 9 10 11 13 16 19 24 27 29 31 33 32 31 30 30 30 31 32 33 36 39 39 40 41 41 41 41 41 42 42 44 45 46 45 45 45 45 45 45 44 42 41 38 36 36 34 33 30 28 27 27 30 34 36 37 35 36
11 11 11 11 10 9 9 9 10 10 12 15 20 25 27 30 32 32 32 32 31 31 34 37 39 40 42 42 42 43 43 42 42 43 44 44 45 46 46 46 46 45 45 46 47 46 46 44 41 39 38 37 35 32 29 27 27 29 32 35 36 36 36
12 12 11 11 11 10 10 10 10 10 11 14 17 21 25 28 31 32 33 34 32 31 33 37 40 43 44 44 44 44 44 44 45 46 47 47 48 49 49 48 47 46 47 47 48 49 49 47 44 42 41 39 38 34 30 28 27 27 30 34 36 36 36
15 14 13 13 12 11 11 12 11 11 12 13 15 18 23 27 31 33 34 34 32 31 33 35 38 41 42 42 42 43 44 46 47 48 48 48 48 48 48 49 48 48 48 48 47 49 48 48 48 48 46 42 40 36 32 28 27 27 28 32 36 37 36
19 18 17 15 15 14 13 12 12 13 13 13 14 16 20 26 30 33 33 32 30 31 34 35 36 37 37 38 39 41 44 44 45 46 46 46 46 46 46 47 47 48 48 47 47 46 46 48 51 51 49 45 41 39 35 31 28 26 27 30 34 37 37
22 21 20 18 17 16 14 13 13 14 14 14 15 16 18 23 28 31 32 31 30 31 33 34 34 34 33 35 38 41 43 44 44 45 45 44 44 44 45 46 46 47 47 47 47 48 49 52 52 50 50 47 44 42 38 35 31 28 27 29 32 36 39
23 22 22 20 19 17 15 14 14 15 15 15 16 18 20 22 26 30 33 32 32 32 33 33 33 34 34 36 39 41 43 44 45 44 44 43 43 43 44 45 45 45 45 46 47 49 52 55 54 51 49 48 48 46 41 37 35 31 28 28 31 35 40
25 24 23 22 20 19 17 16 15 16 17 17 18 21 22 23 26 30 33 33 33 33 34 34 35 37 37 37 39 40 42 43 43 43 43 42 42 42 43 44 44 44 45 46 46 47 50 54 55 53 52 51 52 50 46 41 38 34 31 31 32 35 39
28 25 23 23 22 21 18 17 17 17 18 19 20 22 24 25 26 29 31 32 33 33 32 33 34 37 38 38 38 38 40 41 41 40 39 38 39 40 41 42 43 44 45 45 47 48 49 51 53 55 56 57 56 53 49 45 42 38 35 34 33 34 37
30 28 26 25 23 22 20 18 17 18 18 19 19 22 24 25 26 28 30 31 32 31 31 32 33 34 35 36 36 36 36 37 37 37 37 37 38 39 40 41 43 44 43 43 44 46 47 48 49 54 59 60 57 54 51 48 46 42 38 37 37 36 36
33 32 31 28 24 23 21 19 18 18 18 19 20 23 25 26 26 27 28 29 30 30 31 33 33 33 33 34 35 36 36 36 36 37 37 37 37 38 39 40 41 41 42 42 43 44 46 46 45 49 54 57 57 57 54 51 50 47 42 39 39 37 37
38 37 36 32 28 25 23 21 21 21 20 23 26 28 28 28 28 28 28 28 29 29 30 31 31 34 35 36 36 38 39 39 38 38 38 39 39 39 40 40 41 42 42 42 43 46 48 50 49 48 50 52 53 54 53 53 53 51 47 45 42 38 40
42 40 37 34 31 29 27 24 24 23 23 25 29 32 33 33 32 30 29 29 29 29 28 28 30 34 36 37 37 38 38 39 39 39 39 40 40 40 41 42 44 45 45 46 48 49 51 54 55 51 48 47 48 49 51 52 52 51 51 52 49 44 43
43 40 37 34 33 34 33 31 27 25 24 24 26 29 32 34 33 32 32 31 30 29 28 29 30 34 37 38 38 37 37 38 38 38 39 39 40 40 41 43 45 47 49 52 53 52 53 54 56 56 54 53 54 56 57 56 55 54 55 57 57 54 50
44 42 39 37 36 38 39 38 34 30 27 25 24 25 26 28 29 29 29 29 27 27 28 29 31 35 39 40 40 39 39 39 39 38 39 38 38 39 40 41 43 45 47 47 47 48 49 51 53 55 56 57 61 65 65 63 61 56 53 56 60 61 58
46 44 42 41 40 40 42 43 41 36 31 28 28 27 25 25 26 25 25 24 23 24 25 27 29 32 36 38 41 42 41 40 39 39 37 37 38 38 39 40 41 41 41 40 39 41 44 45 47 48 48 51 57 61 63 62 59 54 53 57 61 61 60
48 47 45 44 44 43 44 44 43 38 34 31 31 30 29 28 28 27 27 26 26 26 26 26 27 29 30 32 35 38 38 39 40 40 38 37 37 37 38 38 39 39 39 38 38 39 40 42 44 45 45 48 50 51 51 51 50 52 57 61 63 63 62
49 49 47 45 44 44 45 45 44 42 40 37 34 33 32 32 31 31 30 30 30 30 29 29 29 29 30 31 32 33 34 36 38 40 40 39 39 38 37 37 37 36 36 36 37 38 39 41 42 44 47 49 49 49 49 49 48 51 53 57 64 70 71
51 50 48 45 44 43 43 43 45 45 45 44 41 39 37 36 35 34 33 32 31 31 30 30 30 30 31 31 32 32 33 34 35 37 38 39 40 41 40 39 38 38 37 37 37 38 39 40 41 42 45 47 48 49 50 51 52 53 52 55 64 70 71

ECMWFFLT1_prec_cthk_030.txt.gz
RH
32 30 32 35 35 35 36 37 37 37 38 38 35 32 27 21 17 15 13 12 13 13 14 15 16 16 16 15 15 16 16 16 15 16 16 16 17 17 17 18 18 18 19 19 19 20 19 19 20 23 26 30 33 34 32 29 30 34 37 40 44 47 48
30 30 31 33 33 33 34 36 37 36 36 36 35 34 32 27 21 16 13 12 12 12 13 14 15 15 15 15 15 16 16 16 17 17 17 17 16 16 17 18 18 17 18 18 18 19 19 18 19 21 25 28 31 33 32 29 28 31 36 38 43 46 47
30 30 32 32 32 31 32 34 35 35 34 34 33 33 34 31 27 21 17 13 11 11 13 13 13 14 15 15 16 17 18 19 20 21 22 21 20 19 20 19 19 19 18 17 18 18 18 19 18 19 23 27 30 33 33 31 29 30 35 37 40 45 46
31 32 32 33 34 33 31 31 32 33 33 32 30 31 33 33 32 28 22 17 13 11 12 13 13 13 14 16 18 20 22 23 24 25 25 25 24 24 25 23 23 22 21 19 18 18 18 18 18 17 20 24 28 32 34 33 30 30 34 37 39 42 46
32 32 33 34 35 33 31 29 28 29 30 31 30 30 32 33 33 33 28 22 18 14 12 12 13 13 14 16 18 20 21 22 23 24 25 26 25 25 26 26 26 25 25 23 22 21 20 19 19 17 17 20 25 30 32 31 29 30 33 36 39 40 45
31 33 33 34 35 34 33 32 31 30 30 32 33 32 33 34 34 33 32 27 23 20 18 15 14 15 16 17 19 20 22 22 23 25 26 25 25 26 26 27 27 27 27 27 26 24 23 21 20 19 17 18 21 26 30 31 29 30 31 35 38 40 43
30 33 34 34 35 34 34 35 36 36 36 36 36 36 36 37 35 35 35 32 28 26 25 23 20 19 19 19 20 23 25 25 26 26 27 26 26 26 27 27 27 28 29 29 29 28 26 24 22 20 19 17 18 22 27 30 30 29 31 33 37 40 41
29 32 34 34 34 34 35 37 38 39 39 38 38 38 38 37 36 37 38 36 33 30 27 27 26 25 25 25 25 27 28 28 27 27 27 28 28 27 27 26 27 28 28 29 30 30 29 28 26 23 21 19 18 20 23 28 30 30 30 31 34 39 40
28 30 32 34 34 34 35 37 38 38 37 37 37 37 38 37 36 36 35 36 37 34 29 27 28 28 30 31 31 33 34 32 30 29 29 29 29 28 27 27 27 27 27 28 29 30 30 30 29 27 25 23 21 20 22 25 28 29 31 31 32 37 40
27 28 31 32 32 33 34 35 36 36 36 36 37 37 38 38 37 37 37 37 37 36 33 31 30 31 32 34 35 38 38 37 35 34 33 31 28 27 26 26 26 26 26 26 28 29 29 29 30 29 28 27 25 23 23 24 26 29 31 32 32 35 41
22 24 27 30 32 32 33 34 34 34 34 35 36 36 37 37 37 38 39 39 39 38 39 37 35 33 33 35 37 38 39 40 39 39 38 35 30 28 27 26 26 26 25 25 25 26 26 25 26 27 27 27 27 26 25 24 26 27 29 32 31 33 39
19 20 22 25 29 31 33 33 33 33 32 32 33 36 37 36 35 36 38 39 40 40 42 43 40 35 34 36 37 38 39 39 40 41 41 39 35 34 32 30 29 28 27 26 25 26 26 25 25 25 25 26 26 26 26 26 26 27 28 30 31 31 37
17 19 19 20 22 26 28 30 31 31 31 30 31 34 36 36 35 35 36 37 39 40 42 45 43 39 35 36 38 39 38 38 39 41 41 39 37 38 38 35 33 32 31 29 28 29 29 28 27 27 26 26 26 26 26 25 25 26 27 29 30 29 34
13 16 20 20 20 20 22 25 27 28 28 28 30 33 35 36 35 35 34 35 37 39 41 43 45 42 38 36 38 39 38 38 40 41 41 38 37 39 40 38 36 35 34 33 32 33 33 31 29 29 29 28 27 26 26 26 26 27 27 28 29 28 31
9 11 16 18 17 16 17 19 20 22 23 24 27 31 34 36 36 35 34 34 35 37 40 42 44 43 40 36 35 37 39 41 43 43 41 38 36 38 39 38 36 35 35 36 35 35 36 35 33 31 30 29 28 27 27 27 27 27 28 28 28 27 29
9 9 11 13 14 13 13 13 14 15 17 21 25 29 33 35 35 35 34 33 34 36 40 42 43 44 42 38 35 38 42 44 44 44 42 38 36 37 38 39 37 36 36 37 38 38 38 39 37 34 32 30 28 28 28 28 28 27 27 25 24 25 28
10 11 10 11 12 11 10 11 11 11 13 16 21 25 30 33 33 32 32 32 34 37 40 43 44 44 43 40 39 41 43 44 44 43 41 38 36 37 38 39 39 38 38 38 39 40 41 41 40 38 36 33 29 28 27 27 28 29 27 25 23 24 27
11 11 11 10 11 10 9 9 9 9 10 12 15 18 22 26 29 30 31 30 33 36 39 43 45 44 43 42 42 42 41 42 44 43 40 38 37 38 38 39 40 41 40 41 41 42 43 43 42 41 40 38 34 30 28 26 27 28 28 26 24 24 27
10 10 9 10 11 10 9 9 9 9 9 10 11 14 16 19 23 28 31 32 33 35 36 40 45 45 44 43 43 42 40 42 43 43 40 38 39 40 40 41 41 41 42 44 45 46 47 45 45 43 42 42 39 33 30 28 27 27 28 27 25 25 26
10 10 10 10 12 11 9 9 9 9 9 10 11 13 16 16 19 25 30 33 34 34 34 37 41 44 43 41 40 39 40 41 42 41 41 40 40 42 43 43 42 43 44 46 47 48 49 50 50 47 43 44 47 42 34 30 29 28 28 27 27 24 25
10 11 12 12 12 12 11 10 9 9 9 10 11 12 15 17 21 26 30 33 35 34 34 34 36 38 37 36 35 36 37 39 40 41 41 42 42 43 43 43 43 43 45 46 47 48 50 51 53 50 46 48 52 50 42 36 32 30 30 29 27 25 24
12 13 15 15 14 13 11 10 10 10 10 11 11 11 13 17 23 27 30 33 36 37 35 34 34 34 33 31 30 32 34 37 38 39 40 41 42 43 43 43 43 43 44 46 48 49 49 49 49 50 52 55 54 51 48 44 37 33 33 31 28 26 24
15 16 16 15 14 13 12 12 11 11 11 12 12 12 13 17 21 24 28 32 36 38 37 35 34 34 33 30 28 30 33 36 37 37 39 40 41 42 42 43 43 44 46 47 49 50 50 49 49 50 52 55 52 49 50 49 42 37 36 35 32 28 25
18 18 16 15 14 15 15 14 13 13 12 12 12 12 14 17 19 22 26 30 34 38 39 36 34 34 33 31 30 32 35 37 37 38 39 39 40 40 41 43 44 46 46 47 49 50 51 52 53 52 52 53 53 53 52 50 46 42 39 37 36 33 29
24 22 19 18 18 18 17 16 15 14 14 14 13 13 14 15 17 19 24 28 31 36 38 35 33 33 34 33 34 35 36 37 38 39 39 39 39 40 41 43 45 46 47 48 48 50 53 56 56 55 53 53 54 57 56 55 53 48 43 39 38 37 34
27 25 23 23 23 19 17 17 17 18 20 19 16 15 15 15 16 18 22 25 28 32 35 35 34 35 35 34 35 37 36 36 37 38 38 39 40 41 42 43 45 46 47 48 49 50 52 53 54 55 55 52 51 54 56 57 58 55 49 43 40 40 39
28 28 27 26 25 22 20 21 22 22 23 20 17 16 16 15 16 18 21 23 27 30 34 38 37 35 34 34 35 36 36 35 34 35 37 39 41 42 42 43 44 46 46 47 49 51 52 52 52 53 52 50 49 49 50 52 54 54 54 50 44 41 42
29 29 28 28 28 27 25 27 28 26 23 20 18 18 17 15 16 19 20 23 26 29 33 37 38 36 34 34 34 34 34 34 33 34 36 39 41 42 42 42 43 44 45 45 47 49 49 48 48 48 47 46 45 44 44 46 48 49 52 53 50 44 43
30 28 29 30 31 31 30 31 31 29 24 20 20 20 19 18 17 18 21 23 26 28 32 38 41 39 37 36 35 35 36 36 35 36 37 39 40 40 41 41 41 41 42 42 43 44 44 43 43 44 44 44 43 43 43 44 45 46 48 52 54 51 47
34 32 31 32 32 32 32 34 34 32 28 22 20 20 22 22 21 20 23 26 26 28 33 38 40 40 39 38 36 36 36 36 36 37 39 41 41 41 40 39 39 39 39 40 41 42 44 43 43 43 43 43 43 43 42 43 44 46 47 49 54 57 56
37 36 35 34 33 32 33 35 36 36 33 27 22 20 22 24 24 23 24 26 26 26 29 32 34 36 37 37 37 37 37 37 37 36 37 38 39 39 39 39 38 38 38 39 42 44 45 45 45 44 44 44 44 44 44 44 45 47 48 48 50 54 56
38 38 37 37 36 36 35 36 36 37 37 33 28 23 23 25 26 24 25 26 26 26 27 28 29 31 32 34 35 36 37 38 38 38 37 37 38 39 39 38 38 39 39 42 44 46 45 45 46 44 44 45 46 46 48 49 49 49 50 50 51 52 51
39 39 39 39 39 39 38 38 37 37 38 38 35 31 27 27 28 28 28 28 27 27 27 27 27 28 28 30 33 34 35 36 39 40 40 40 41 42 42 42 42 43 43 44 45 46 46 47 46 46 46 47 49 50 51 52 52 52 50 49 50 50 50
40 40 40 41 42 41 40 39 39 38 39 39 39 36 33 31 31 32 32 31 31 31 32 33 33 33 31 32 34 35 36 37 39 40 41 42 43 43 43 43 45 45 45 45 46 46 46 46 47 48 49 50 52 53 54 53 52 51 49 46 44 46 49
42 42 42 43 43 43 43 42 41 40 40 41 40 37 34 30 30 32 33 33 33 34 37 38 38 40 40 38 38 37 37 38 38 38 40 42 43 43 42 42 42 42 42 43 44 44 44 43 44 46 47 49 51 53 54 54 51 50 51 49 47 47 48
47 45 45 44 44 43 44 43 42 42 42 42 41 39 35 33 32 33 34 35 36 38 40 40 41 42 42 40 40 40 38 37 36 37 38 40 41 43 42 42 42 41 40 40 40 41 42 41 40 39 40 42 44 46 48 50 49 49 52 52 48 45 45
47 47 46 46 44 44 44 43 42 42 43 43 42 41 40 39 38 36 36 38 39 40 40 41 42 40 38 36 37 36 34 35 36 38 38 39 40 41 42 42 42 42 41 41 40 39 40 40 39 38 38 39 40 42 42 43 43 45 47 48 46 44 44
47 47 47 46 46 45 45 44 44 43 44 44 43 43 42 43 42 41 39 40 39 36 33 33 33 32 31 30 29 29 30 33 35 37 40 41 41 42 42 43 43 43 43 42 42 40 40 40 41 41 41 41 42 43 42 41 42 43 44 44 44 44 44

ECMWFFLT1_prec_cthk_033.txt.gz
RH
34 37 34 30 29 30 31 32 34 34 33 34 34 32 31 29 26 24 21 16 13 13 13 13 14 14 14 14 14 13 12 12 13 12 13 13 13 16 18 19 18 17 18 19 20 18 17 19 24 29 28 26 29 33 35 37 37 36 39 41 43 44 45
34 36 36 33 31 29 30 32 33 34 35 36 38 37 35 32 28 24 20 15 13 12 12 13 13 13 14 14 14 14 13 12 12 12 13 13 13 15 16 17 18 17 16 19 21 19 18 17 18 21 23 24 26 30 33 35 36 36 35 36 38 41 42
35 35 35 34 31 30 30 31 33 33 34 35 37 38 36 34 30 27 21 15 12 11 11 12 13 13 13 14 14 14 13 12 12 12 13 13 13 14 15 16 17 17 16 16 19 20 20 18 17 17 18 20 23 26 30 32 34 35 33 31 33 36 39
34 34 35 32 31 31 30 30 32 33 33 33 35 37 36 35 34 32 27 18 12 10 10 11 11 12 13 13 14 14 13 13 12 12 13 13 14 14 15 16 16 17 18 16 16 18 21 21 19 17 17 17 19 22 26 30 32 34 33 31 30 33 37
32 35 36 34 34 34 30 27 29 31 31 32 33 35 36 36 37 36 32 26 17 11 9 9 10 11 12 12 13 13 13 13 13 13 14 15 17 18 18 19 19 19 19 19 19 18 19 21 21 20 18 17 18 19 22 25 29 32 33 32 31 32 37
32 34 34 34 36 34 30 28 29 29 30 30 31 33 35 36 36 36 34 30 25 18 13 10 9 10 11 11 12 12 13 13 14 15 17 18 19 20 20 19 20 20 20 20 21 20 20 21 22 21 20 18 18 19 20 22 25 29 32 33 31 32 36
34 34 33 33 34 33 31 31 30 29 29 28 29 32 33 34 35 36 35 32 28 24 19 14 10 9 10 10 11 12 12 13 15 16 17 19 19 20 20 20 20 20 20 21 20 21 21 22 22 23 23 21 20 21 21 20 21 25 30 32 32 31 33
34 34 34 35 36 36 35 34 32 30 29 27 27 30 32 34 35 36 37 35 30 27 24 20 14 9 9 10 11 12 13 14 15 16 18 20 22 22 22 22 23 23 23 23 23 22 22 22 23 24 25 24 23 23 24 22 20 21 26 30 31 31 31
31 32 33 36 37 36 36 36 33 30 29 29 30 31 32 33 35 36 37 37 35 31 27 25 21 15 11 12 12 13 15 16 16 17 20 22 24 25 25 25 26 25 25 25 24 24 23 23 24 25 26 27 26 26 26 25 23 21 23 27 29 30 31
29 30 33 36 37 34 35 37 34 31 32 33 32 32 32 32 32 34 35 37 37 35 31 29 28 25 18 15 17 17 17 17 18 19 21 24 25 25 28 30 30 28 25 23 24 25 24 24 25 26 26 27 27 27 27 26 25 23 22 24 26 28 30
28 30 33 36 37 35 36 38 36 33 33 34 33 31 30 30 31 31 32 34 36 37 37 35 34 33 26 19 18 21 21 20 21 21 22 24 25 26 28 31 34 33 27 23 23 26 27 24 24 25 25 25 26 26 26 26 25 24 23 23 25 27 28
28 30 33 33 32 32 34 35 34 34 34 35 34 32 30 29 29 30 31 32 33 35 38 39 38 38 35 27 21 22 24 26 25 25 26 27 26 27 28 31 35 36 32 26 23 24 27 26 23 22 23 22 22 23 23 24 24 23 23 23 23 26 27
25 28 30 30 31 31 33 33 34 35 36 36 35 34 32 31 31 31 31 31 32 34 36 39 39 39 40 37 30 25 25 28 29 30 31 31 30 31 32 34 36 37 36 33 27 25 26 28 26 23 23 23 23 23 23 23 24 23 22 22 22 24 26
21 24 26 28 31 32 33 34 35 36 38 38 36 34 34 33 33 33 32 32 33 35 36 38 40 41 42 43 40 33 27 28 31 33 34 35 35 35 37 39 40 40 41 40 35 30 28 29 29 26 25 25 25 25 25 25 25 25 24 23 22 23 25
20 23 25 26 29 31 32 32 33 34 37 37 35 34 35 34 33 33 33 33 34 35 36 37 39 41 43 45 44 40 34 32 33 34 36 37 37 38 39 42 43 42 43 44 41 36 33 34 35 32 28 28 28 27 27 27 27 27 26 25 24 23 26
19 25 29 29 29 29 28 27 27 28 31 33 33 33 34 34 33 33 33 33 34 35 35 35 36 38 41 44 45 43 41 38 36 35 37 38 39 39 40 42 42 41 43 44 43 41 38 39 42 42 37 33 31 30 29 28 27 27 26 26 24 23 23
17 24 28 29 29 28 27 26 24 23 24 25 26 29 32 34 34 32 31 32 33 36 35 33 33 35 37 43 46 46 45 42 37 36 37 39 40 42 41 42 42 40 41 44 44 44 43 41 43 46 46 42 38 35 32 29 27 26 26 25 25 24 23
15 18 21 23 23 25 26 26 24 23 23 23 23 24 26 29 32 31 31 31 32 33 34 33 32 31 33 39 46 47 47 45 41 37 37 39 42 43 44 44 43 41 41 43 43 44 44 42 42 45 48 49 46 42 38 34 31 29 28 26 25 25 25
14 16 17 18 18 19 22 24 24 22 21 23 23 23 23 24 27 29 28 28 29 31 32 32 31 29 30 36 43 46 47 47 44 39 37 40 43 45 46 46 44 42 42 42 43 44 43 42 41 42 45 48 49 48 44 40 36 32 31 30 28 26 26
13 15 15 15 15 16 18 20 19 17 16 17 18 19 21 22 23 24 24 25 26 29 31 31 29 28 29 34 39 44 47 46 44 42 38 40 44 46 47 47 44 41 40 42 43 44 43 42 42 43 43 45 47 48 47 45 43 39 35 33 32 30 28
11 11 12 13 15 17 18 17 18 18 17 16 15 15 17 20 21 21 22 23 25 27 28 28 28 29 30 33 36 41 47 47 44 43 41 40 43 45 45 45 41 39 40 42 43 43 43 43 44 44 45 46 47 49 48 48 48 45 41 38 35 34 32
11 12 13 14 16 18 17 13 13 15 15 14 14 14 14 16 18 19 21 21 22 25 25 26 30 33 34 34 35 38 44 47 46 44 42 40 41 41 41 40 39 39 40 43 45 46 45 44 44 45 46 46 47 47 47 48 50 48 45 41 39 38 36
14 16 16 16 17 17 15 13 13 14 13 11 11 13 13 14 15 16 18 20 21 22 24 27 32 36 36 37 37 37 40 43 43 42 41 40 40 38 38 38 39 40 41 43 45 47 46 46 46 47 47 47 47 46 45 48 50 49 47 46 45 43 42
19 19 19 19 19 18 18 18 17 15 13 12 12 12 13 13 15 16 17 18 20 22 24 28 34 36 37 37 38 39 39 39 39 38 37 37 37 36 37 39 40 42 43 43 45 47 49 50 50 50 49 49 49 48 47 48 50 49 48 50 49 48 47
21 20 21 21 21 22 21 18 15 14 15 16 17 17 15 13 15 17 18 18 20 22 26 29 33 37 38 39 40 41 41 40 38 36 34 33 34 36 39 40 42 43 45 45 47 49 51 52 53 53 52 52 52 51 49 49 50 49 48 49 50 50 51
23 23 22 21 22 23 21 18 18 21 23 23 23 22 20 18 17 18 19 20 20 21 26 29 32 35 38 40 42 42 41 40 38 36 34 35 37 38 40 42 44 46 47 48 50 53 53 53 53 53 54 54 54 53 51 49 49 49 49 48 48 49 50
25 24 23 23 23 23 22 22 25 28 26 25 22 19 20 22 21 19 20 22 21 21 24 26 30 34 36 38 41 43 42 40 39 39 39 39 40 40 41 43 45 47 47 50 54 55 54 54 53 53 54 54 54 54 52 49 49 49 48 46 45 44 47
28 26 25 25 25 25 25 26 29 30 29 27 25 22 22 22 22 21 21 22 22 22 21 23 26 31 34 36 40 43 43 43 42 42 42 42 41 41 41 43 45 47 49 52 55 55 55 54 53 51 51 51 50 48 47 46 47 46 45 43 42 41 43
30 30 28 26 26 28 29 30 32 33 32 30 27 27 26 24 22 24 22 22 23 23 22 22 24 28 32 34 38 41 44 45 45 44 42 42 42 43 44 45 46 48 51 53 54 55 55 54 53 52 50 49 46 44 43 41 41 41 40 40 40 41 42
33 33 31 29 28 29 30 32 34 34 34 33 29 26 26 26 25 24 25 25 26 25 24 23 23 26 30 33 36 39 42 45 46 46 46 45 46 47 47 47 47 49 50 51 52 54 54 54 53 52 49 47 44 43 42 40 39 39 39 39 40 42 43
34 34 34 32 32 32 31 32 34 33 34 35 32 27 28 30 28 27 28 30 29 28 27 25 25 28 31 34 37 39 41 44 48 50 51 51 50 49 49 50 50 50 50 50 51 53 53 53 53 50 46 44 43 41 42 41 40 39 39 39 41 41 43
36 35 35 35 35 34 32 32 33 34 34 35 34 31 30 32 32 32 32 32 30 30 29 29 29 32 32 34 36 39 42 46 49 53 55 56 55 54 53 52 51 51 51 50 50 50 51 51 51 48 45 44 43 42 43 43 41 40 40 40 42 42 43
36 36 36 36 37 37 35 33 33 34 34 34 35 34 33 33 34 34 33 32 31 31 30 29 31 33 35 35 36 38 42 45 48 51 54 55 56 54 52 50 50 50 50 50 49 49 49 49 48 46 44 43 43 44 45 44 41 41 41 42 42 43 44
37 37 37 37 37 38 37 34 34 34 34 35 36 36 36 36 35 35 34 33 33 32 31 31 33 35 35 35 36 38 41 44 45 47 49 50 51 50 49 49 49 49 49 49 48 48 47 46 45 43 42 43 44 45 45 43 43 44 44 44 44 45 45
38 38 38 37 37 38 37 36 34 34 35 37 38 37 37 37 36 35 35 35 36 37 36 36 37 37 37 37 37 38 40 42 43 44 44 45 46 46 47 47 46 46 47 47 46 45 44 44 43 43 43 44 45 45 44 43 45 46 46 46 47 46 45
39 38 38 38 38 38 37 37 36 35 35 37 39 39 38 37 37 37 37 37 38 38 38 37 37 35 35 35 35 35 37 38 39 39 41 41 41 42 43 42 42 42 43 43 43 43 42 42 43 43 44 44 43 43 42 42 42 43 43 43 44 45 44
40 39 40 41 40 40 39 38 38 37 37 38 40 40 39 39 39 39 40 39 38 38 39 38 37 35 35 35 34 34 36 36 36 37 39 39 38 38 39 39 39 39 38 38 39 39 40 41 42 43 44 45 43 42 41 40 41 41 41 42 42 43 43
41 42 42 43 42 41 41 41 42 42 41 41 41 40 39 39 40 40 41 40 39 39 39 38 37 37 37 37 36 36 37 38 37 38 39 39 39 40 39 38 38 38 37 36 36 35 37 39 40 42 44 44 44 43 41 41 42 42 40 40 40 41 42

ECMWFFLT1_prec_cthk_036.txt.gz
RH
44 43 38 36 41 42 36 33 36 38 34 30 29 31 32 32 31 31 28 25 23 21 20 19 18 19 19 18 17 16 15 14 13 13 13 13 13 14 16 16 16 19 21 21 18 18 19 20 24 28 27 24 24 26 28 31 34 37 38 37 39 41 43
40 42 39 35 38 40 38 35 35 36 34 33 35 35 35 33 30 29 27 24 21 18 16 16 16 16 16 16 15 15 14 14 13 12 11 12 12 12 13 13 15 18 20 21 20 18 18 19 21 24 26 25 24 24 26 28 32 35 37 37 38 39 39
34 39 39 36 36 37 37 37 34 33 35 37 39 40 38 36 33 29 26 23 21 18 15 13 13 13 13 13 14 13 13 13 12 12 11 11 11 11 12 12 14 18 20 21 23 22 21 20 20 22 23 24 24 24 25 27 30 32 34 36 38 39 38
32 37 37 37 38 37 37 37 34 33 36 38 40 40 38 38 37 34 30 26 21 18 15 12 11 11 11 11 11 12 12 12 12 11 10 10 10 10 11 11 13 17 19 20 21 23 24 23 22 22 23 23 23 23 22 24 27 30 32 34 36 37 37
31 36 38 37 39 41 39 35 33 33 35 37 39 39 38 38 39 39 36 32 24 16 12 10 10 10 10 10 10 11 11 11 11 12 11 10 10 10 10 10 12 15 19 22 23 23 25 26 25 24 24 23 22 21 21 21 23 26 29 32 34 35 35
30 32 36 37 38 42 40 35 34 33 33 37 39 38 38 37 38 39 39 36 30 22 15 12 11 10 10 10 10 10 11 11 11 11 12 11 10 11 11 12 14 17 20 23 24 24 25 26 27 27 27 27 25 25 22 20 19 21 24 28 32 33 34
29 29 34 38 37 40 39 35 35 35 33 37 40 39 37 36 36 38 40 37 33 28 22 16 12 11 11 10 9 10 10 10 11 11 12 12 12 13 14 15 17 19 21 23 22 23 23 23 24 26 28 29 28 27 25 23 20 19 20 22 26 30 33
26 26 31 35 35 36 38 37 38 38 34 35 38 37 35 35 35 36 38 37 34 30 26 21 15 11 9 9 9 9 9 9 10 11 12 13 13 14 16 18 19 20 23 25 24 24 24 23 22 24 27 28 29 29 28 26 24 22 21 20 22 25 28
25 24 26 31 33 35 38 38 37 35 35 34 34 32 32 33 34 34 36 37 36 32 29 25 20 14 10 8 8 9 10 10 10 10 11 13 14 16 18 20 23 24 26 28 29 29 26 24 23 22 24 26 28 29 28 28 27 26 24 23 22 22 24
27 24 24 28 34 36 38 39 35 32 34 34 29 28 30 32 32 33 35 35 36 35 32 29 25 20 14 10 9 9 10 10 11 12 13 15 16 17 19 22 24 26 27 29 32 32 28 25 24 23 22 23 26 28 28 28 28 28 28 27 25 23 22
30 27 24 27 33 37 38 37 35 34 36 33 27 26 29 30 31 32 32 34 35 36 36 34 30 25 20 14 11 10 10 12 14 15 16 17 18 18 19 22 24 25 26 28 31 31 29 26 25 24 23 22 23 25 26 26 27 27 27 27 26 25 23
30 28 25 26 30 34 36 36 35 37 38 33 28 29 29 29 29 30 31 32 33 35 37 37 35 32 29 23 16 12 11 13 16 18 18 19 20 20 21 22 25 26 26 28 29 30 29 27 25 23 22 20 20 21 23 24 24 24 24 24 24 25 24
27 28 26 27 30 31 32 34 36 37 37 33 31 32 31 31 31 30 30 30 31 33 36 37 37 35 34 33 27 22 17 15 15 17 19 20 21 23 23 24 26 28 28 28 29 29 28 27 25 22 21 20 19 20 21 22 23 22 22 22 23 24 24
26 29 29 30 32 32 31 34 37 37 36 33 34 34 34 34 36 34 32 31 30 31 32 34 36 35 35 36 34 31 25 19 17 17 19 21 22 25 26 27 28 30 30 31 31 30 28 28 27 25 23 23 22 22 22 23 24 24 24 23 23 25 25
26 30 32 32 32 30 31 35 38 39 39 37 35 35 35 35 37 37 36 34 33 32 32 32 34 35 35 36 36 35 32 28 24 21 22 23 24 26 28 29 30 30 31 33 34 33 31 32 33 31 30 28 27 27 26 26 26 26 26 25 25 26 27
25 29 33 32 31 29 29 32 37 39 41 40 37 36 35 34 35 36 36 36 35 35 34 34 35 36 36 38 39 40 40 38 34 30 29 28 27 28 30 32 34 34 35 37 38 38 37 38 40 39 37 35 33 31 30 30 29 28 27 27 26 26 28
25 30 32 31 29 27 26 28 32 35 38 38 37 36 35 34 34 34 35 35 35 35 35 35 36 37 38 39 41 42 42 42 41 38 35 33 32 31 33 36 37 37 38 40 42 43 43 43 43 43 40 39 38 36 34 33 32 30 29 28 28 29 30
23 28 32 33 30 25 24 24 26 27 31 34 35 36 35 34 33 33 32 32 33 33 34 34 34 35 36 36 37 39 39 41 43 43 40 38 37 34 34 37 39 39 40 41 43 44 44 43 43 42 41 39 39 39 38 36 35 34 32 31 31 31 32
21 24 27 31 30 25 25 28 28 27 29 32 34 35 35 34 33 33 31 30 29 30 31 32 32 33 34 34 33 34 35 37 41 45 44 42 41 39 37 38 39 39 39 40 42 44 44 42 40 40 39 39 39 41 41 41 39 37 37 36 35 35 35
21 23 24 26 27 27 27 32 34 32 30 31 34 34 33 31 31 31 30 29 28 28 29 30 31 32 34 34 33 32 31 32 38 45 47 46 45 44 40 38 38 39 40 41 43 43 42 40 39 39 39 38 39 40 41 43 43 41 40 39 39 39 40
20 23 24 26 27 28 28 30 33 31 28 27 30 31 30 28 28 28 28 28 28 28 28 29 29 31 32 33 33 32 30 30 34 42 48 49 49 48 44 39 37 39 43 44 44 43 41 40 40 40 39 39 40 41 41 42 43 44 44 42 42 42 43
20 21 25 29 29 28 26 25 28 29 26 25 25 25 24 24 25 26 27 28 29 29 28 28 28 29 30 30 31 30 30 31 34 39 44 48 50 50 48 43 40 40 44 46 46 45 43 41 40 40 40 41 42 42 41 41 43 45 46 46 46 46 46
25 23 26 30 29 28 26 24 25 26 23 22 23 22 21 21 21 23 24 25 26 27 28 28 29 29 28 27 28 28 31 35 37 39 42 46 49 51 50 48 44 43 45 48 48 48 46 43 41 41 41 42 42 42 41 42 44 46 48 48 49 49 49
27 27 27 27 27 27 25 22 22 20 18 19 21 20 19 18 18 20 21 22 23 24 26 28 29 29 27 26 26 28 33 38 40 40 41 44 46 48 48 48 47 45 46 48 48 48 48 45 43 43 43 43 43 43 44 44 45 47 49 50 51 52 51
27 29 28 26 26 25 21 18 20 21 21 22 24 24 23 20 17 16 18 20 20 21 22 25 27 28 27 25 26 29 35 38 40 40 41 41 42 43 43 44 45 46 47 47 47 48 48 47 46 46 46 46 46 47 47 48 48 49 50 52 54 54 53
26 26 25 24 24 22 19 18 23 27 25 25 25 25 25 23 19 16 15 17 18 17 19 21 23 25 26 25 25 30 35 38 39 40 41 42 43 43 42 42 44 46 48 48 47 48 47 47 48 48 50 51 51 51 51 50 51 51 50 52 53 55 55
27 26 24 23 23 23 22 22 26 28 26 25 23 23 24 24 20 18 16 17 17 17 17 18 19 22 24 24 25 29 34 37 39 41 42 43 45 44 43 42 44 46 47 48 49 49 48 48 49 50 52 53 53 53 52 51 51 50 48 48 49 50 51
29 28 26 23 23 26 25 26 28 28 28 27 26 25 27 27 23 21 19 19 19 19 18 18 19 20 22 23 26 30 33 36 38 41 44 45 45 45 45 45 45 46 47 48 49 50 49 49 50 50 51 52 52 51 51 51 51 49 46 45 45 46 47
30 29 28 25 25 27 26 27 29 29 28 29 27 24 24 26 26 24 22 21 21 22 20 19 20 21 21 23 26 28 31 34 36 39 43 45 46 47 47 47 46 47 48 47 48 49 49 49 49 49 50 51 50 51 51 52 53 51 48 47 47 48 48
30 29 28 27 27 28 27 27 28 28 29 30 28 23 22 25 26 25 24 24 23 23 23 21 21 22 22 23 25 26 28 30 34 38 41 44 46 47 48 47 47 48 50 50 50 51 51 51 51 51 51 51 51 51 52 52 53 53 51 50 50 50 51
32 30 30 28 29 30 28 27 28 28 28 29 29 26 26 28 28 26 27 27 25 24 24 23 22 23 23 23 25 26 27 28 31 35 38 42 45 47 47 47 47 49 51 52 52 53 53 53 53 53 52 52 52 52 52 52 52 53 53 53 53 53 53
34 33 32 30 30 30 29 29 29 28 28 29 31 30 30 31 31 31 31 30 28 26 25 24 23 25 25 25 26 27 27 28 29 32 35 39 42 46 47 47 47 48 51 52 53 53 53 53 54 54 54 54 53 54 54 53 54 54 55 54 53 52 51
38 36 35 34 33 32 31 31 30 28 29 30 32 33 33 32 32 32 32 31 29 29 27 26 26 26 27 28 28 27 28 29 29 31 33 36 39 43 46 47 49 50 52 54 54 54 54 54 55 56 56 55 55 55 55 55 55 56 55 52 49 48 47
39 38 37 37 36 34 33 33 31 30 32 32 33 34 35 34 33 33 32 31 32 31 30 29 29 29 29 28 29 29 29 31 31 31 32 35 37 40 44 47 49 51 54 55 55 55 55 55 55 55 55 54 54 54 53 54 55 54 52 49 48 47 45
39 39 39 38 38 36 35 35 34 34 35 34 34 34 34 34 35 34 34 33 33 33 33 31 30 30 29 29 30 31 31 32 33 33 33 34 36 38 42 45 47 49 51 53 54 55 54 54 53 53 52 53 53 53 52 53 52 51 49 48 46 45 45
40 40 39 40 40 38 37 37 36 37 37 36 35 34 34 34 35 35 35 35 35 35 35 33 32 33 32 31 31 32 32 32 33 34 34 37 38 40 42 42 43 44 47 49 51 53 53 52 51 51 51 51 51 50 49 49 47 45 44 43 42 43 44
42 42 41 40 41 40 40 39 39 39 39 38 36 35 35 34 34 35 36 36 36 37 37 36 36 36 34 33 33 33 33 33 33 33 34 36 39 41 41 40 42 45 46 48 49 50 50 49 48 48 47 46 45 44 43 42 40 39 38 39 40 41 42
42 41 41 42 41 41 40 40 40 41 41 40 38 37 36 35 34 35 36 37 37 37 37 38 37 36 35 35 35 35 34 35 37 37 36 37 40 41 42 43 44 44 45 45 46 46 46 46 44 43 42 41 40 40 39 38 38 37 37 37 38 39 39

ECMWFFLT1_prec_cthk_042.txt.gz
RH
36 41 43 46 49 49 47 46 45 42 39 38 39 38 37 35 29 25 24 25 25 26 25 24 23 23 24 24 24 23 21 20 19 18 17 16 16 16 16 15 14 14 14 13 14 15 17 20 23 24 23 22 22 23 25 27 31 34 37 37 37 38 41
33 38 43 46 48 48 47 47 46 44 41 38 38 38 37 35 32 28 26 24 25 25 25 23 21 21 20 20 22 22 21 20 19 17 17 16 17 16 15 14 13 12 12 13 14 16 17 18 20 22 23 22 22 22 22 24 26 30 34 36 36 37 39
30 36 41 44 46 47 48 48 46 43 42 39 37 36 35 34 33 31 28 25 24 25 25 23 22 20 19 19 20 21 21 20 18 17 16 15 15 16 15 14 13 11 12 13 14 15 16 16 17 19 21 23 23 22 21 22 23 26 29 32 33 35 36
27 31 35 39 43 45 47 47 45 44 43 41 37 35 35 34 34 34 31 27 25 25 25 24 22 22 20 20 20 19 19 19 18 16 15 14 14 14 15 14 13 12 12 13 14 14 15 14 14 15 17 21 24 23 21 21 22 23 25 27 29 31 33
24 25 29 35 41 44 45 45 44 43 44 42 38 35 34 35 34 33 32 28 26 25 24 24 23 23 22 21 21 20 19 18 17 16 15 14 14 14 14 13 12 12 12 13 13 14 14 13 13 14 15 18 22 23 23 23 23 23 24 25 26 27 29
23 24 28 36 41 43 43 44 44 44 44 43 40 36 33 32 30 30 29 28 26 24 24 24 24 24 23 23 22 22 21 19 18 17 16 15 14 13 13 12 12 11 11 12 13 13 14 14 15 16 17 19 21 22 23 23 24 24 24 23 23 23 25
21 23 29 36 39 40 43 44 43 44 46 44 41 36 31 28 26 26 27 27 26 25 24 24 24 24 24 23 23 23 22 20 19 18 17 16 15 14 13 12 12 11 11 11 13 14 16 17 18 19 20 20 21 21 21 22 22 22 23 22 22 21 22
19 21 28 34 36 38 43 44 43 45 46 45 42 37 32 28 26 25 26 27 26 26 25 24 24 24 23 23 23 22 21 20 19 18 17 16 16 15 14 13 12 11 12 13 14 16 17 18 19 20 21 22 22 22 22 22 22 22 23 22 22 22 22
18 20 25 31 34 38 43 43 43 46 46 43 41 39 36 31 28 26 25 26 26 26 24 23 23 23 23 23 22 21 21 21 20 18 17 16 16 15 15 15 14 14 14 15 16 17 17 19 20 21 22 22 22 22 21 21 21 22 23 23 22 22 22
18 19 23 29 33 39 43 43 44 45 43 41 41 40 38 34 30 28 27 26 26 26 24 24 24 23 23 23 23 22 22 21 20 18 17 16 16 16 16 16 16 16 15 15 17 18 18 19 21 22 22 21 20 19 18 19 19 20 21 22 22 22 22
16 18 22 29 36 41 43 44 44 43 41 40 40 39 37 33 31 29 27 27 27 27 27 27 26 25 24 23 23 23 23 22 20 19 17 16 16 16 17 17 17 17 16 16 17 18 18 19 21 22 22 20 18 17 17 17 18 18 19 19 20 22 22
16 17 21 29 37 41 42 42 42 42 40 40 41 39 35 32 32 31 28 27 27 28 29 29 28 27 25 23 23 24 23 22 21 19 17 16 16 16 16 16 17 17 17 18 18 18 19 20 21 22 21 20 18 18 17 17 17 17 16 17 17 18 19
16 17 21 30 36 38 38 37 38 40 41 42 42 39 36 33 33 32 29 27 28 29 29 30 30 29 27 26 24 24 23 22 21 19 17 16 15 15 17 18 19 20 19 20 20 20 20 21 23 23 22 20 19 18 17 17 17 16 16 16 16 16 17
16 16 20 28 34 34 34 34 36 39 42 43 43 40 37 36 35 33 30 29 29 30 31 31 31 31 30 29 28 26 24 22 20 18 17 16 16 17 20 22 23 23 22 22 22 22 21 21 23 24 23 21 20 19 18 17 18 17 17 17 17 17 18
17 17 19 24 29 31 32 33 36 39 41 43 43 41 39 40 39 35 32 31 30 30 30 31 33 33 33 33 33 31 28 25 23 21 19 20 20 22 23 24 26 26 25 25 24 23 22 22 24 25 24 23 21 19 19 19 18 18 18 19 20 20 21
18 18 20 24 29 32 33 34 36 38 39 41 43 41 40 41 41 37 35 32 31 31 31 32 33 34 35 35 35 34 32 31 29 26 24 24 24 24 24 23 25 27 27 27 26 25 24 23 24 25 25 23 21 20 20 21 21 21 21 23 24 25 27
18 19 21 25 30 34 35 36 38 38 39 41 41 40 39 40 41 40 36 33 31 32 33 33 34 34 36 38 38 37 37 38 36 34 32 29 27 26 24 22 23 25 27 28 28 27 25 24 24 25 25 23 22 22 24 24 24 24 24 26 29 32 35
19 19 21 26 30 33 34 35 38 38 39 41 41 40 38 39 39 39 36 34 33 34 35 35 37 37 39 40 40 39 39 39 40 39 38 36 34 31 27 24 23 23 25 29 30 29 27 26 25 24 25 25 24 24 25 25 25 25 27 30 33 36 41
20 20 22 27 31 32 32 33 36 38 39 40 40 40 40 39 38 37 35 35 37 38 37 38 40 41 43 43 43 43 43 44 44 44 44 44 42 40 36 33 30 28 28 30 32 32 30 28 25 24 25 26 26 25 26 25 25 27 29 33 36 40 44
23 24 26 29 33 34 34 34 36 40 42 42 41 41 42 41 40 38 37 38 39 39 38 38 41 42 43 44 44 46 46 47 47 47 48 48 47 46 44 42 39 37 35 34 34 33 32 30 27 25 27 29 28 27 27 26 27 29 32 36 39 42 45
28 28 29 32 35 37 38 37 39 44 46 45 44 45 46 45 43 42 40 40 40 41 40 40 41 42 41 42 43 44 45 45 46 46 46 47 46 45 44 44 43 42 42 40 38 35 33 32 30 28 29 32 32 31 30 28 29 32 35 37 41 43 45
33 32 33 35 37 38 39 40 43 45 46 44 46 48 48 48 47 45 44 44 42 42 42 42 43 43 43 41 41 42 44 45 45 45 45 45 44 43 42 41 43 45 47 46 44 41 37 35 34 32 31 34 37 36 33 32 33 36 37 39 42 45 47
35 35 36 37 37 37 39 41 42 43 43 43 44 45 45 47 48 47 46 45 43 42 41 42 42 42 42 42 41 41 42 43 44 44 45 44 42 41 40 40 41 46 50 49 47 46 43 39 38 37 36 37 40 40 37 35 37 39 40 42 45 47 48
36 38 38 38 38 38 38 39 39 39 39 40 41 41 41 42 44 46 45 44 43 41 39 38 39 39 39 39 40 40 40 41 42 43 43 43 42 41 41 41 40 43 49 51 50 49 47 43 40 40 40 40 40 41 40 39 40 42 43 45 47 48 49
37 38 39 40 40 39 39 39 38 36 33 31 32 32 33 34 36 39 41 42 42 41 39 37 36 36 36 37 38 39 39 40 40 41 41 42 42 41 41 42 42 42 45 49 51 51 49 47 44 41 41 42 42 42 43 42 43 44 45 47 48 49 50
40 40 39 38 38 40 41 40 37 35 33 31 30 29 28 29 32 34 36 37 38 39 39 39 38 38 38 37 37 38 38 38 39 39 39 40 40 40 41 42 44 45 43 45 49 51 51 50 48 44 42 43 44 43 43 43 43 44 45 47 48 49 50
44 43 42 40 37 37 38 36 32 30 30 31 31 30 30 29 31 31 31 32 33 35 36 37 38 38 38 37 36 36 36 37 37 37 38 38 37 37 38 39 42 46 46 44 45 49 51 51 51 48 45 45 45 45 44 44 44 43 45 46 46 48 50
44 44 43 40 37 34 33 31 28 27 27 27 26 25 25 26 28 29 28 27 29 31 33 34 35 35 35 34 33 32 32 33 35 36 36 37 36 36 37 38 40 44 47 45 43 44 46 48 48 47 45 44 44 45 45 46 45 45 45 45 46 49 50
48 47 45 40 37 36 34 30 26 26 28 28 26 23 22 21 23 25 27 26 25 25 26 28 31 32 31 29 28 27 27 28 31 33 35 36 35 34 35 37 40 44 47 46 44 42 42 42 42 41 40 41 43 44 46 47 47 46 46 47 49 51 52
49 49 46 40 37 36 35 33 30 29 30 31 29 27 26 25 25 25 28 29 26 24 23 23 24 26 26 25 23 22 22 23 25 28 31 33 33 33 34 36 39 43 46 47 46 44 42 40 39 39 39 40 42 44 46 46 47 47 47 48 50 51 53
51 50 47 41 37 35 35 35 34 35 35 35 34 31 29 30 31 29 29 29 27 25 24 22 22 22 22 22 21 20 19 19 20 22 25 28 30 31 33 35 38 42 45 46 46 46 45 43 41 40 41 41 43 45 46 46 45 46 47 48 50 53 54
54 53 50 45 41 39 37 35 34 35 35 35 35 32 29 29 31 31 30 29 28 26 25 24 22 22 22 21 20 19 18 19 18 19 21 24 27 28 30 34 38 41 43 45 45 45 46 46 45 44 43 43 44 44 45 45 45 46 48 51 53 54 55
55 54 53 49 45 41 38 35 33 33 32 31 32 31 29 27 28 31 31 31 30 28 27 26 24 23 22 21 20 19 20 20 19 19 20 22 25 27 29 32 35 38 41 44 44 45 45 46 47 47 48 48 47 47 48 47 48 49 51 53 55 56 56
56 54 53 51 47 42 38 36 35 32 30 29 29 28 27 26 26 28 30 31 31 29 28 28 27 25 24 22 21 20 20 20 20 21 21 22 24 27 28 30 33 35 37 39 41 43 44 45 45 47 49 50 52 52 51 51 51 52 53 55 55 56 56
55 54 52 52 50 46 41 38 37 33 30 28 27 29 30 29 28 29 29 29 30 29 28 28 28 28 26 24 22 21 21 21 21 21 22 23 25 26 27 29 30 32 32 33 35 38 41 43 44 46 47 49 51 53 54 55 55 55 56 56 55 56 55
53 53 52 51 49 47 43 41 38 34 30 29 29 31 33 31 30 31 31 31 31 30 28 27 28 29 28 26 25 24 25 24 24 23 24 24 25 26 28 28 28 30 30 31 33 35 37 39 41 43 45 47 48 50 52 54 55 56 57 57 58 57 57
53 51 49 46 44 42 42 42 40 37 35 33 32 33 33 32 31 32 32 32 32 32 30 29 29 30 29 29 28 28 28 28 28 27 26 26 26 27 27 28 28 30 31 32 34 35 38 40 41 42 45 46 48 50 51 52 52 54 55 56 57 57 57
54 52 49 46 43 42 43 43 42 40 38 36 35 34 33 33 32 32 32 33 33 33 32 31 31 31 31 30 31 31 31 31 31 30 30 30 30 30 30 29 29 31 34 36 37 39 43 48 49 48 49 50 52 55 56 56 56 57 58 59 60 60 59

ECMWFFLT1_prec_cthk_045.txt.gz
RH
39 42 45 47 45 45 47 49 51 51 46 41 41 42 42 38 35 32 29 27 26 26 26 27 28 28 28 27 27 27 27 26 25 24 23 22 21 20 20 20 21 22 22 22 21 21 20 21 22 24 25 24 23 24 25 28 34 36 37 39 40 41 41
39 40 43 44 43 43 47 49 50 50 47 42 40 42 41 39 35 32 29 26 25 25 25 25 26 27 27 27 27 27 26 25 24 24 23 22 22 21 20 20 20 20 21 21 21 20 19 19 20 21 24 24 23 23 23 24 28 33 35 37 37 38 40
40 41 41 43 42 43 48 48 48 49 47 43 41 41 41 38 35 32 29 26 24 25 24 24 24 25 25 26 27 26 26 26 24 23 22 21 21 20 19 20 20 20 20 19 20 19 18 18 19 20 22 24 24 23 23 22 24 27 30 33 35 35 37
37 40 41 43 43 45 48 49 49 49 48 45 42 40 40 40 36 32 29 26 24 25 25 24 23 23 24 24 25 25 25 25 24 22 21 20 20 20 20 20 20 20 19 18 18 17 17 16 17 18 21 22 22 22 21 21 21 22 24 28 31 32 33
33 37 39 42 44 46 49 50 50 49 48 47 44 41 40 40 38 34 31 28 26 25 25 25 23 23 23 23 23 23 24 24 24 22 20 20 20 20 20 19 19 19 18 18 18 17 16 15 16 17 19 19 19 20 21 20 20 21 22 24 26 28 30
27 32 37 40 42 45 48 49 49 48 47 46 46 44 40 39 39 36 34 33 30 27 26 26 24 23 22 22 22 22 23 23 23 23 21 20 20 20 19 18 18 18 17 17 17 16 16 15 15 15 16 16 16 18 21 22 22 22 23 22 24 25 27
22 26 32 37 39 42 44 47 48 47 46 46 47 46 42 39 39 38 37 36 34 30 28 26 25 24 23 22 21 22 22 23 23 22 22 21 21 19 18 17 17 16 16 17 16 15 15 14 14 14 15 16 16 17 22 24 24 24 25 25 25 26 27
21 21 26 30 33 37 40 43 45 46 46 47 48 47 43 41 39 38 37 37 37 34 30 27 26 25 24 23 22 21 22 22 21 21 21 21 21 19 17 16 15 15 16 16 15 15 14 13 15 16 17 18 18 19 22 24 25 25 26 26 26 26 26
20 21 22 23 26 31 36 39 43 46 47 46 46 46 44 41 39 36 33 33 35 34 31 28 26 25 25 24 22 22 21 22 21 21 20 21 20 18 16 15 15 15 16 15 14 14 14 15 17 19 20 20 20 21 21 23 23 23 24 25 25 25 25
20 20 21 22 25 30 36 39 43 48 47 46 46 45 44 41 37 33 31 30 31 32 31 29 27 25 25 24 23 22 22 22 22 21 21 21 20 18 16 15 15 15 15 14 14 15 16 17 18 20 22 23 23 22 22 21 22 22 22 23 24 25 24
21 21 21 23 26 32 36 39 44 47 46 45 45 44 43 40 37 32 28 27 28 29 29 29 27 26 24 24 24 23 22 22 22 22 22 21 20 18 16 15 15 14 14 15 15 16 17 18 19 21 23 24 23 22 20 20 20 20 21 22 23 23 23
20 20 20 22 27 32 35 38 44 45 44 44 45 45 43 40 37 32 27 26 25 26 27 27 27 25 24 24 23 23 23 22 22 22 22 22 21 19 17 16 15 15 15 16 17 17 17 18 20 21 22 23 23 21 19 18 18 18 19 21 21 22 22
18 18 19 21 25 31 34 38 41 42 43 44 46 46 44 40 37 32 29 27 25 25 26 26 26 25 24 23 23 23 23 22 21 22 22 22 21 20 18 17 16 16 17 17 17 17 19 20 20 20 21 22 22 20 18 17 17 17 18 19 20 20 20
15 16 18 19 24 30 34 37 39 40 43 45 46 46 45 41 37 34 32 30 28 27 27 26 26 26 24 23 23 22 22 21 21 21 21 21 21 20 20 19 18 19 18 18 18 19 20 20 19 20 21 21 21 19 18 17 17 17 17 17 17 17 17
15 15 16 18 22 28 33 36 38 40 43 45 46 47 45 40 36 35 33 32 30 28 28 28 28 27 26 24 22 21 20 21 21 21 21 21 21 21 20 20 20 21 20 20 20 20 21 21 21 21 22 22 20 19 18 18 17 16 16 16 16 16 16
15 15 16 17 21 26 31 36 39 41 43 46 46 47 44 38 36 36 33 31 30 30 29 29 29 29 29 28 24 22 21 21 21 21 21 21 21 21 21 22 21 22 23 23 23 22 23 23 23 23 23 23 21 20 19 18 17 16 16 16 16 17 17
15 16 17 17 21 26 32 37 39 40 42 45 47 46 42 37 36 36 34 31 30 31 31 32 31 31 31 30 28 26 25 23 21 21 21 21 21 21 22 22 24 26 27 27 27 25 24 25 24 24 24 24 22 21 20 18 17 16 17 17 18 20 21
16 16 17 19 23 29 34 37 36 36 38 42 46 46 42 37 37 38 35 31 30 32 33 33 34 34 33 33 32 30 28 27 26 24 23 22 22 23 24 26 28 30 31 31 30 28 27 26 26 24 24 25 24 22 20 18 17 18 18 20 22 24 27
19 17 17 20 25 31 34 35 34 33 35 39 44 44 40 37 37 38 36 33 33 34 33 33 34 36 36 36 36 34 31 30 30 29 28 27 27 28 29 30 31 32 33 33 33 32 30 29 27 25 25 25 25 23 21 20 20 20 21 22 24 27 29
21 20 19 20 25 31 34 37 37 37 38 41 43 44 43 41 40 42 42 40 38 36 35 34 34 36 37 38 38 37 36 35 35 34 35 35 35 35 35 34 33 32 31 31 32 32 32 31 29 26 25 26 25 25 24 24 23 22 23 24 26 28 31
22 21 20 20 25 32 37 39 40 41 42 43 45 46 47 46 46 48 48 44 41 39 37 35 35 36 37 39 40 38 38 39 40 40 41 41 41 41 39 38 35 33 31 30 29 29 30 32 31 29 26 25 26 27 28 27 25 24 24 25 27 29 32
24 22 21 22 27 34 38 40 41 43 44 44 46 47 49 49 48 49 46 42 40 39 38 39 39 39 40 40 41 41 42 44 45 45 45 45 45 46 45 44 43 42 39 36 33 31 31 32 32 30 28 26 26 29 30 28 26 26 26 26 28 31 35
25 23 22 23 28 35 39 40 42 44 44 45 47 48 50 50 50 50 46 41 39 39 39 40 42 43 43 42 43 43 45 47 48 48 48 48 48 48 48 48 47 47 47 45 44 41 38 37 35 33 31 29 27 29 31 30 28 27 27 27 30 34 38
30 27 25 25 27 34 40 41 42 44 44 45 47 48 49 49 49 50 47 43 42 41 40 41 43 44 43 43 43 44 44 45 46 46 47 47 47 47 47 45 44 44 45 47 48 48 46 45 42 39 36 33 30 30 32 32 30 29 30 31 34 38 41
35 33 31 28 29 34 40 42 42 43 44 45 47 48 48 48 48 50 49 45 43 43 41 41 43 44 44 43 42 42 42 42 43 44 45 46 46 47 46 44 42 41 41 43 46 49 50 51 49 46 42 39 36 35 36 37 35 35 35 35 38 41 43
38 37 36 36 36 39 43 45 43 43 45 47 50 51 50 49 50 52 52 49 47 46 44 43 43 44 45 44 42 41 41 41 42 43 44 45 46 46 46 44 43 42 41 41 43 46 50 53 53 52 48 44 42 40 39 41 42 42 41 42 42 42 43
41 40 39 41 43 44 45 45 44 45 47 49 52 53 52 52 52 54 55 53 51 50 49 48 47 46 46 45 44 43 42 41 41 42 43 44 45 46 46 46 45 44 44 43 43 44 46 50 53 55 53 50 46 44 43 43 44 46 46 46 45 45 45
46 46 43 43 44 44 43 42 42 42 44 45 47 49 51 51 51 52 52 52 52 52 51 50 50 49 47 46 45 44 44 42 41 41 41 43 44 45 45 46 46 45 44 43 43 43 44 46 49 52 55 54 51 47 45 46 46 47 47 48 47 47 46
51 53 53 51 49 45 40 37 36 37 37 38 38 40 41 42 42 43 44 44 47 49 50 50 50 48 46 45 44 43 42 42 41 41 41 42 42 42 43 44 45 45 44 43 42 43 46 47 47 48 51 54 54 51 48 48 48 48 48 47 48 47 46
55 56 57 57 54 48 40 35 34 35 35 35 33 32 33 33 33 36 38 39 41 43 44 46 46 44 43 43 41 40 39 39 39 39 39 39 40 40 40 41 42 43 43 43 41 42 45 48 49 47 47 49 51 52 51 50 50 50 49 48 47 47 46
60 59 58 58 56 52 47 43 39 37 37 37 36 33 31 30 29 31 34 35 37 38 40 41 40 39 39 39 39 38 37 37 37 36 36 36 37 37 38 38 40 41 42 42 41 41 44 48 50 49 47 46 47 48 50 51 50 49 48 48 47 47 48
66 65 63 61 58 55 51 48 45 41 40 39 37 35 32 29 27 28 30 32 33 34 36 37 37 36 36 35 36 36 36 36 34 34 33 33 33 34 35 36 37 38 39 40 40 40 42 47 50 50 49 47 45 45 46 46 46 45 45 46 47 48 49
66 66 65 62 59 55 51 49 46 44 41 39 38 35 33 30 28 28 28 30 32 33 34 35 36 36 35 34 33 33 33 33 32 31 31 29 29 30 32 34 35 37 37 38 39 39 41 44 48 50 50 49 49 47 45 44 43 43 44 46 47 49 49
63 62 62 62 60 57 53 51 48 44 41 39 37 35 33 32 31 29 28 27 28 29 31 32 32 34 33 32 31 29 29 28 28 27 27 26 26 26 28 30 33 35 36 37 38 39 40 43 46 49 51 50 50 49 48 47 46 46 46 47 48 49 49
62 61 60 61 61 59 56 54 50 45 42 39 37 35 33 32 31 29 26 23 22 23 24 25 27 30 30 30 29 28 27 25 25 25 24 23 23 23 24 26 28 31 34 35 37 39 41 43 46 49 51 51 51 52 52 52 52 52 51 50 48 48 48
63 62 61 61 61 60 58 56 53 49 45 42 38 34 31 30 29 27 25 23 22 21 21 22 24 27 28 29 28 26 25 24 24 24 23 23 21 21 22 24 25 27 30 32 34 36 39 41 44 46 49 51 52 52 53 54 54 55 55 55 54 53 52
63 62 61 60 60 59 58 56 55 52 49 45 41 37 33 31 29 28 29 29 27 26 25 25 26 26 28 30 29 27 25 25 25 25 24 23 23 23 23 24 24 26 28 30 32 34 36 38 40 43 45 47 48 49 51 51 51 53 54 54 55 55 56
63 62 60 59 58 59 59 57 56 54 52 49 46 42 38 34 32 31 31 30 29 29 29 29 29 28 29 31 31 29 28 26 25 25 25 25 25 26 25 25 25 27 29 31 32 34 36 36 37 40 43 44 45 46 47 48 49 51 52 53 53 54 54

ECMWFFLT1_prec_cthk_048.txt.gz
RH
47 49 51 51 51 53 52 51 52 54 54 52 47 44 43 41 39 37 35 32 30 30 29 29 29 29 28 28 29 29 29 29 29 28 25 23 24 25 24 24 24 25 26 25 24 24 24 25 27 29 30 31 32 30 29 31 35 38 39 40 40 41 40
44 47 50 51 50 50 50 50 52 54 55 54 50 46 43 42 40 37 35 33 31 29 28 28 28 28 27 27 28 28 29 29 29 27 25 23 22 23 23 23 23 24 24 23 23 23 24 24 25 26 27 29 30 30 27 26 29 33 35 37 39 39 39
39 41 46 49 49 48 48 49 50 52 53 54 51 46 44 42 41 38 36 33 32 30 28 27 27 27 27 26 27 27 28 28 27 26 24 22 21 22 22 23 23 23 23 22 23 23 24 24 24 24 25 26 27 28 27 25 25 28 31 34 36 37 37
37 37 41 46 47 47 47 48 48 49 51 52 51 48 45 43 42 40 38 35 33 30 28 26 27 28 27 26 26 26 26 26 26 24 22 21 21 22 23 23 23 22 22 22 23 23 23 23 23 22 23 24 25 25 26 24 22 24 27 30 32 34 35
37 36 38 42 45 46 47 47 48 48 51 52 52 51 47 44 43 42 39 37 34 31 28 27 26 27 28 27 26 26 25 26 26 24 22 21 21 22 22 23 22 22 22 22 22 23 22 21 20 20 20 21 22 23 24 23 22 21 24 26 29 31 33
36 37 36 38 40 43 45 46 47 47 49 52 53 53 50 46 44 43 41 38 35 32 30 28 26 26 27 27 26 26 25 26 26 25 23 21 21 21 21 21 22 22 21 22 22 22 21 20 19 18 17 18 19 20 21 21 21 21 22 23 25 28 30
32 36 37 36 38 42 44 45 46 48 50 51 53 54 53 49 45 43 42 39 36 33 30 28 26 25 26 26 26 26 26 26 25 24 23 22 21 20 19 20 21 21 21 21 21 21 21 19 18 17 16 15 16 17 17 19 21 22 22 23 24 26 28
27 31 35 36 37 40 43 44 46 49 51 53 52 53 53 49 45 43 42 39 35 33 30 27 25 25 25 25 25 25 25 25 25 24 23 22 21 20 19 19 19 20 21 21 20 20 19 18 17 16 15 15 14 15 17 19 21 24 25 24 25 26 27
26 27 31 34 35 36 39 41 44 48 51 52 51 51 51 49 46 43 41 39 36 32 29 27 26 25 25 24 24 24 24 25 24 24 23 22 21 20 19 19 19 19 20 19 19 19 18 17 16 15 15 15 14 16 18 19 22 25 27 26 26 27 28
25 25 27 31 33 34 36 38 41 46 48 49 50 51 51 50 47 44 42 40 37 34 32 29 27 26 25 24 24 24 24 24 23 23 22 22 22 21 19 19 18 19 19 18 18 18 16 16 15 15 15 16 16 18 19 21 23 26 27 27 27 27 28
23 24 23 26 29 32 36 38 39 41 43 44 47 49 50 50 48 45 43 41 38 36 35 33 30 28 26 24 24 23 23 23 22 22 21 21 21 21 20 19 19 18 17 17 17 16 15 15 15 15 16 17 18 19 21 22 24 25 25 24 25 25 26
19 21 22 24 25 26 30 35 37 38 39 41 43 46 48 49 48 46 44 42 39 36 36 35 33 31 28 26 24 23 23 23 22 21 21 21 21 21 20 20 19 17 16 16 15 14 14 14 14 15 17 18 19 20 22 23 23 22 21 21 22 22 24
16 18 19 23 25 24 25 29 34 36 36 38 40 43 46 48 48 46 44 41 38 36 36 35 34 34 31 28 26 24 23 23 22 20 20 20 20 20 21 20 19 17 16 15 14 14 14 13 15 17 18 19 20 21 23 23 22 20 19 19 20 20 22
14 15 17 21 24 25 26 28 32 34 35 36 39 42 45 47 48 46 44 41 36 34 34 33 33 34 33 30 28 25 23 23 22 21 20 20 20 21 21 20 19 18 16 15 14 14 13 14 16 18 19 20 21 22 23 22 20 19 18 19 18 19 19
12 14 15 18 21 24 26 28 31 34 36 37 39 42 44 47 47 46 44 41 36 33 32 31 31 32 33 32 29 26 24 23 22 22 21 21 21 21 21 21 20 19 17 16 14 13 14 16 17 18 19 20 21 22 23 22 19 18 18 18 17 17 17
12 13 14 15 19 22 25 28 30 34 37 37 38 41 44 46 46 45 44 40 34 31 29 28 29 30 30 30 28 25 24 23 23 22 21 21 21 21 21 21 21 20 18 16 14 14 16 17 18 19 20 20 21 22 23 21 19 17 16 17 16 16 15
13 13 14 14 17 21 23 26 32 36 39 37 36 40 43 45 45 45 43 39 32 28 25 24 25 25 26 26 25 25 24 23 22 22 22 22 21 21 21 21 21 21 19 17 16 17 18 19 19 20 21 21 21 22 23 21 19 18 16 16 16 16 15
15 15 15 14 16 20 22 26 31 37 39 37 37 40 43 45 46 45 42 37 31 27 26 25 25 25 25 25 24 24 23 23 22 22 22 22 22 22 21 21 22 21 21 20 20 20 20 19 20 22 22 22 22 24 24 22 20 19 17 15 15 15 15
17 17 16 15 16 19 22 26 30 34 38 38 38 39 41 44 45 42 39 36 32 29 29 29 28 27 27 27 26 25 24 23 23 22 21 21 21 22 22 21 22 21 21 22 22 22 21 22 23 24 24 23 24 24 25 24 22 20 18 16 15 15 15
17 18 17 16 16 17 22 27 29 32 37 39 38 40 42 43 43 41 39 37 34 32 32 32 32 32 32 32 31 30 28 27 25 24 22 21 20 21 21 21 20 20 21 23 24 24 24 25 25 25 25 25 25 25 25 25 23 21 18 16 15 15 16
16 16 16 16 17 17 21 25 28 32 37 40 41 42 44 45 45 43 41 39 36 33 33 34 35 36 37 38 38 36 33 30 29 27 25 24 22 21 21 20 20 21 23 25 27 28 28 28 28 27 26 26 25 25 25 25 24 22 20 18 17 18 19
17 15 16 16 17 18 22 26 30 35 38 40 43 44 45 46 46 44 42 40 37 34 33 34 36 38 39 40 39 38 37 34 32 30 29 27 27 26 25 24 24 25 26 28 30 32 33 33 33 32 30 28 27 26 25 24 25 24 22 20 20 21 22
22 17 17 16 19 23 27 30 35 39 40 40 42 45 46 47 46 44 42 41 39 36 35 34 36 37 38 38 38 38 39 37 35 34 32 30 30 30 30 30 31 32 32 33 34 35 35 34 34 34 33 32 32 30 27 25 25 25 24 24 24 24 25
29 22 19 18 20 25 29 32 38 42 42 40 40 43 46 48 47 45 43 42 41 38 36 34 35 35 35 36 37 38 39 39 39 38 37 35 34 35 35 36 38 39 40 40 39 37 36 34 32 32 32 33 35 35 32 28 27 28 28 28 28 28 27
36 28 23 21 21 24 28 34 40 43 41 39 38 41 45 47 48 47 45 43 43 40 36 35 34 34 34 35 36 37 39 40 41 42 42 42 42 42 42 42 43 43 44 44 43 42 41 39 37 35 34 35 37 39 38 35 32 33 34 34 33 32 31
41 35 29 24 22 24 30 37 41 42 40 37 36 40 45 47 48 48 46 46 45 40 36 35 35 36 37 38 38 39 40 41 43 44 45 46 47 48 47 47 47 46 46 46 46 46 45 45 45 44 43 43 43 44 43 40 37 37 38 39 38 37 37
44 41 35 30 25 26 32 39 41 41 41 39 38 41 45 47 47 49 49 49 47 42 36 35 37 38 40 41 41 42 43 45 46 47 48 49 51 51 50 50 49 48 46 45 45 45 45 45 47 48 49 50 51 51 50 46 42 40 40 41 41 41 41
45 44 41 37 31 30 34 40 42 42 43 43 42 43 44 45 47 50 51 50 48 44 39 37 39 41 44 44 43 45 47 48 48 49 49 50 50 50 50 50 49 48 47 46 44 44 44 45 46 48 49 51 54 56 56 54 49 45 43 43 43 43 43
47 45 43 41 38 37 41 45 47 47 46 46 46 45 46 47 50 52 51 50 50 48 44 42 44 46 47 47 46 48 49 49 50 50 49 49 48 48 48 49 49 49 48 47 46 46 46 46 47 48 49 51 53 55 57 58 57 53 48 45 44 45 45
50 47 44 42 42 45 48 51 53 53 52 50 49 48 48 49 51 52 52 52 52 51 48 46 46 48 48 47 47 48 48 48 49 48 47 47 46 46 46 47 48 49 49 49 48 48 48 48 48 48 50 52 54 54 56 58 59 58 55 51 48 46 46
54 50 46 44 45 47 50 54 56 57 57 56 54 51 50 51 53 53 54 54 55 54 51 48 47 47 48 48 47 47 46 46 47 45 44 45 44 43 44 46 47 48 48 49 50 50 50 51 51 49 49 52 55 57 58 58 59 59 58 57 54 50 48
58 52 49 48 48 49 50 52 55 56 57 57 55 53 52 53 54 55 56 56 55 54 51 50 48 48 49 49 49 48 46 45 46 44 44 44 43 42 42 43 43 44 45 46 48 49 51 52 52 50 49 50 54 58 59 59 58 57 58 58 57 55 52
62 57 54 54 53 53 54 53 53 53 54 53 53 53 53 54 53 53 53 52 51 49 48 47 47 47 48 49 50 48 46 45 45 45 45 45 45 44 42 41 41 42 41 42 44 45 47 49 50 51 49 48 50 54 58 58 56 55 55 54 54 54 55
63 61 61 60 59 60 60 59 57 55 53 52 51 49 49 48 48 46 46 46 46 44 43 43 43 44 45 47 47 46 44 44 45 44 44 45 45 44 43 42 41 41 40 40 41 42 43 44 46 47 48 46 46 48 52 55 55 54 54 52 51 51 52
58 58 59 59 59 61 64 64 64 62 58 56 52 49 46 44 42 40 40 42 42 41 40 40 40 40 42 43 43 43 43 44 44 42 42 42 42 43 43 42 42 42 41 41 41 41 42 42 42 44 45 45 45 45 48 52 54 55 56 55 55 53 52
58 56 55 53 53 55 58 61 62 61 60 58 55 52 49 46 42 40 41 41 39 38 37 37 37 38 40 40 41 42 42 42 42 42 41 40 40 41 41 41 42 42 42 42 42 42 42 42 42 42 44 45 44 44 46 49 52 54 56 56 57 57 56
67 62 57 54 53 53 54 57 58 58 58 58 57 54 50 45 43 43 43 41 40 39 37 37 37 38 39 39 41 42 43 43 42 42 42 41 41 41 40 40 40 41 41 41 41 41 40 40 41 41 42 42 42 43 44 46 49 52 54 55 56 56 55
73 68 63 59 57 55 55 56 57 58 58 57 55 52 48 43 42 43 42 40 41 41 39 36 35 35 37 38 39 40 41 42 42 41 41 41 41 41 40 40 39 39 38 37 35 35 34 34 35 37 38 37 38 40 41 43 45 47 49 51 52 52 52